ECMWFFLT1_850_spd_000.txt.gz
Wind_Speed
22 21 20 22 24 24 24 24 24 24 23 21 21 20 19 21 24 27 28 30 32 32 34 39 41 39 39 42 42 40 40 40 39 38 37 36 35 36 37 36 35 32 28 24 19 15 17 20 21 22 21 19 17 16 16 19 22 23 22 21 20 18 16
21 21 20 21 23 24 25 25 24 23 22 22 21 20 19 20 22 26 28 30 32 33 33 35 37 37 36 38 42 44 44 42 40 40 39 38 37 36 37 38 38 36 33 29 23 17 16 18 20 23 24 22 20 18 17 20 23 24 23 22 20 18 17
21 21 21 21 21 23 25 24 23 21 20 21 21 20 20 20 21 24 28 30 32 33 33 34 34 34 34 37 41 44 44 42 41 42 41 40 38 38 37 38 39 40 38 34 31 25 20 19 20 22 25 26 24 22 20 21 24 25 24 23 22 19 18
23 23 22 22 22 23 24 24 24 23 21 20 20 21 21 21 21 23 26 30 32 33 34 35 35 34 33 35 39 42 43 43 44 44 43 42 40 39 39 38 39 40 40 38 36 32 28 24 22 23 26 28 25 22 22 23 25 25 24 23 23 22 20
23 24 24 24 24 25 26 27 28 27 26 24 22 21 22 22 21 22 25 29 32 34 34 35 36 36 35 35 38 41 44 46 46 46 44 44 42 40 40 41 41 40 40 39 36 33 31 27 24 23 26 28 26 23 23 24 25 26 25 25 25 23 21
24 24 25 26 27 28 29 30 30 31 31 29 27 25 23 22 22 22 24 27 31 33 33 33 35 37 36 36 37 40 44 47 49 47 44 42 42 42 42 42 42 41 40 39 36 33 31 28 25 24 25 28 28 25 25 26 27 27 27 27 27 25 23
25 25 26 27 28 29 31 32 33 33 33 32 31 30 26 24 23 22 23 25 28 32 34 33 34 36 37 37 37 40 42 45 48 48 45 42 41 43 44 43 44 44 42 40 37 34 32 30 27 26 26 28 29 27 26 27 28 28 29 30 29 26 25
25 26 27 29 30 31 32 33 34 34 34 34 32 31 29 26 25 24 23 24 26 30 34 34 33 34 37 38 38 39 41 43 47 49 47 43 42 43 45 46 46 45 43 42 39 35 33 32 29 27 27 29 30 29 27 28 28 29 30 31 29 28 27
25 26 27 28 30 31 32 33 34 35 35 35 34 33 31 29 27 26 25 24 24 28 33 36 35 34 35 38 38 39 42 44 45 48 48 46 43 44 47 47 47 46 44 42 40 37 35 34 32 29 28 29 32 32 29 28 29 30 31 30 29 29 28
24 25 26 27 28 30 31 32 33 34 34 35 35 34 33 31 29 28 27 25 24 26 31 36 38 36 34 37 38 38 42 45 46 47 50 49 46 46 48 48 48 47 45 43 41 39 36 35 35 33 30 29 31 35 33 31 32 33 33 32 30 30 28
25 25 26 26 28 29 30 30 30 32 33 33 34 35 35 33 30 28 27 26 25 25 29 34 39 39 37 37 38 37 40 45 47 48 49 49 47 47 48 48 48 48 45 43 42 40 38 36 37 37 34 30 30 34 37 36 35 35 35 33 31 30 28
26 26 26 27 28 29 30 30 29 30 30 31 32 34 36 36 34 31 29 28 27 26 28 32 37 40 40 39 39 38 39 43 47 49 49 49 48 48 49 49 48 47 45 44 43 41 39 37 38 39 37 33 32 33 36 36 35 34 35 34 32 30 28
28 29 29 28 29 29 30 30 30 29 29 29 31 33 36 37 37 35 32 30 28 27 28 31 35 39 40 41 41 40 40 42 45 47 50 52 52 50 51 49 47 46 46 45 44 43 40 39 39 40 39 37 35 34 36 38 36 34 34 33 33 30 27
30 31 31 31 31 30 30 30 30 30 30 30 31 33 36 37 38 38 36 33 30 28 28 30 34 38 41 42 43 43 42 43 45 45 48 52 54 53 54 52 47 46 46 46 46 45 42 40 41 41 41 40 39 37 37 39 39 36 34 33 32 30 28
31 32 33 33 32 31 31 31 31 31 31 31 32 33 35 37 37 37 38 36 32 28 28 30 32 36 40 42 43 45 45 44 45 47 48 51 54 56 57 55 49 46 47 47 48 46 43 42 43 44 43 43 41 40 39 40 41 40 37 34 32 32 30
32 33 33 34 34 32 32 32 32 32 32 32 33 34 36 36 36 37 38 37 34 31 29 31 32 34 39 42 43 45 47 45 44 47 50 52 55 57 57 56 51 47 48 49 49 47 44 44 45 45 46 45 43 43 42 42 44 44 41 37 33 33 33
33 33 33 34 34 34 34 34 34 34 34 34 35 36 37 38 37 38 38 39 38 36 33 33 34 35 36 40 43 44 46 48 46 47 50 53 55 56 57 56 53 49 50 51 50 48 46 46 47 47 46 46 45 45 44 44 47 49 46 39 33 34 35
32 33 34 34 35 35 35 35 36 36 37 37 37 38 39 40 40 40 41 41 41 41 38 35 36 37 36 37 41 43 44 48 48 47 49 52 54 55 55 54 53 52 52 52 51 49 47 48 49 48 47 47 47 46 44 45 48 50 48 42 35 34 36
33 34 35 35 36 36 37 37 38 38 39 39 40 40 41 42 43 44 44 43 43 44 42 39 37 38 37 37 39 42 43 46 49 48 49 51 53 55 55 55 55 54 53 53 52 50 49 50 50 49 47 46 46 46 44 45 49 50 48 44 38 35 36
33 35 36 36 38 39 39 40 40 40 40 40 41 41 41 42 44 46 46 46 46 45 44 42 39 39 39 38 39 42 43 45 49 49 49 51 53 55 57 57 57 56 54 53 52 50 51 51 50 49 48 45 44 45 44 45 49 50 48 46 41 36 36
34 36 37 38 40 41 41 41 42 41 39 39 39 40 40 41 43 45 47 48 47 45 44 43 41 41 41 39 39 42 43 45 48 48 48 51 54 56 58 59 59 57 54 52 51 51 51 52 50 49 48 45 44 45 46 47 50 51 48 46 43 37 36
36 38 39 40 42 42 42 42 42 41 40 38 38 38 38 38 40 43 45 46 46 44 43 42 41 42 43 41 40 42 43 44 48 49 48 50 54 56 58 60 60 58 54 52 51 51 50 50 50 49 48 46 44 45 47 49 53 54 49 44 41 38 37
37 39 41 42 42 42 42 41 41 41 39 38 38 37 36 36 38 40 40 41 41 41 42 43 42 42 44 43 41 42 43 43 46 49 49 50 53 56 58 59 59 57 54 52 51 51 49 49 49 49 48 47 46 46 48 50 54 54 48 43 42 40 40
37 41 42 42 41 41 41 41 41 41 39 38 38 37 36 35 35 37 37 37 37 38 40 41 42 43 44 44 42 41 43 43 45 48 50 51 54 56 57 59 59 56 53 52 52 50 49 48 49 49 49 47 46 46 47 49 50 50 47 45 45 44 42
38 41 41 40 39 40 41 42 42 42 40 38 38 37 36 34 33 34 36 35 36 37 38 39 41 43 44 44 42 41 42 43 44 47 50 52 55 56 56 58 59 58 54 52 51 50 48 47 49 49 47 45 45 46 46 46 46 46 47 47 47 44 41
38 39 38 37 38 40 42 43 43 43 41 39 37 35 34 33 32 33 35 35 35 36 36 37 40 43 43 43 42 41 42 43 44 48 51 53 54 55 55 57 60 60 56 52 50 49 47 47 48 48 45 43 43 44 43 44 45 44 44 44 43 40 38
37 37 37 38 39 40 42 44 44 44 42 39 37 34 32 30 29 32 34 33 32 33 34 36 40 42 42 42 42 42 42 43 45 47 50 52 53 53 54 55 57 57 54 52 51 48 48 50 50 47 45 43 43 43 42 43 43 40 38 36 36 36 36
37 39 38 38 39 41 43 45 45 44 42 39 36 33 31 29 27 29 32 32 32 33 34 36 40 41 39 40 42 42 42 43 44 46 49 52 52 52 52 52 52 53 51 50 50 49 50 52 50 47 46 45 45 43 41 41 40 38 35 33 32 31 29
39 39 38 37 39 41 43 44 44 43 41 38 35 32 29 27 26 26 30 31 32 34 35 37 38 37 36 39 41 41 42 43 44 45 48 51 53 52 50 49 49 49 49 50 50 50 52 52 49 47 48 47 45 43 41 41 39 35 31 28 25 23 22
40 39 35 36 39 41 42 43 42 41 39 37 33 29 26 25 24 25 28 29 31 35 36 36 36 34 33 36 40 40 41 43 44 45 48 52 56 54 50 49 50 50 49 50 50 50 51 49 45 45 46 46 45 43 42 40 36 30 26 22 21 20 20
41 36 34 36 37 38 37 38 38 38 37 35 33 27 24 24 24 25 29 30 31 35 37 36 37 34 31 34 39 39 40 44 45 46 48 53 57 55 52 52 53 53 52 51 51 50 48 46 44 44 45 45 45 43 40 37 34 31 27 25 24 23 22
39 34 33 35 34 32 32 32 33 34 33 34 33 26 22 24 24 24 27 28 28 32 34 36 39 36 31 33 39 39 40 44 47 48 50 51 52 55 56 56 55 56 56 55 54 52 48 47 46 45 44 44 43 40 38 37 36 35 32 29 28 27 25
37 33 33 34 30 27 28 28 28 27 27 31 30 22 17 19 22 23 25 26 27 30 32 35 39 38 33 35 40 40 40 44 48 51 52 50 51 55 57 57 56 54 52 53 55 54 51 50 48 46 45 43 41 40 40 38 36 35 33 31 30 28 25
39 33 32 32 28 26 25 23 22 21 20 20 18 13 14 17 21 23 24 25 27 30 31 34 37 36 33 35 40 41 41 43 47 52 54 53 54 55 55 55 54 50 47 51 57 57 54 52 49 47 45 40 37 37 39 38 37 35 32 30 28 27 25
41 36 33 32 30 27 24 21 20 17 11 5 2 8 15 19 20 21 21 23 25 27 29 32 34 33 32 35 39 41 42 42 45 51 55 56 55 54 54 55 54 51 50 53 55 53 50 47 44 41 39 35 33 33 35 36 36 33 30 28 27 26 25
41 40 36 33 31 28 24 19 18 16 9 7 9 10 12 15 16 16 18 20 22 23 25 29 31 30 31 36 40 41 41 41 44 50 56 58 58 56 56 55 54 53 52 51 49 46 45 43 38 34 33 32 31 32 33 34 33 31 29 28 26 24 22
38 42 39 34 32 30 26 21 18 16 11 7 9 10 9 9 11 14 16 18 20 21 23 24 26 27 31 38 42 41 41 42 45 50 54 57 58 57 56 54 51 50 49 46 44 44 43 41 35 31 31 32 31 31 31 31 31 30 29 27 25 22 20

ECMWFFLT1_850_spd_003.txt.gz
Wind_Speed
21 21 20 20 17 15 14 14 15 15 15 14 14 16 17 18 18 18 19 21 23 24 24 27 31 33 35 36 40 45 43 39 38 36 35 35 35 37 38 37 36 33 28 22 17 13 10 11 17 22 23 22 21 20 18 16 14 16 18 20 21 21 21
21 21 20 20 20 19 17 15 15 14 14 14 14 14 15 17 19 19 20 22 24 26 25 25 26 29 34 38 40 43 43 42 42 41 39 38 37 38 38 38 37 36 33 26 20 17 15 11 12 18 22 22 23 24 22 19 17 17 18 20 22 21 21
20 20 20 19 20 21 20 19 17 16 15 14 13 14 13 14 17 18 20 23 24 27 28 28 27 27 31 36 38 40 42 43 43 43 42 40 40 40 41 39 38 37 33 27 24 22 19 16 13 14 19 22 24 25 24 22 19 18 19 21 23 23 22
20 20 20 19 20 21 21 21 21 20 19 17 16 15 14 14 15 16 19 22 25 27 29 31 31 30 30 32 36 38 39 41 42 42 43 43 43 43 43 42 40 38 35 31 31 28 24 21 17 14 15 18 20 22 24 24 20 18 21 23 24 25 23
20 21 21 21 20 21 22 23 23 23 22 22 21 19 18 17 16 16 17 20 24 27 30 32 34 34 32 32 34 37 37 38 41 43 44 44 45 46 45 44 43 41 39 37 35 33 29 25 21 17 14 15 17 18 20 23 22 19 22 24 25 26 25
20 21 21 21 21 22 23 24 24 24 24 24 24 23 22 21 19 17 17 18 23 26 29 32 34 35 35 34 34 35 36 36 38 42 45 45 45 48 48 47 46 44 42 39 36 35 33 27 23 19 16 15 17 17 18 22 22 21 24 26 27 29 27
20 21 21 22 22 23 24 24 25 25 25 25 25 25 24 24 23 20 18 18 20 24 28 31 34 36 36 36 34 32 33 35 37 40 44 46 46 48 50 49 48 46 42 40 39 38 36 31 27 22 18 15 16 18 20 21 21 24 29 31 30 30 28
21 22 22 22 23 24 25 26 26 26 26 25 24 24 24 25 25 24 22 20 19 21 25 29 32 36 38 37 35 33 34 35 37 39 41 46 48 49 51 50 49 46 43 41 41 40 37 36 32 27 22 19 17 18 20 21 21 23 30 33 31 30 30
22 23 23 23 23 24 25 27 28 28 27 26 25 24 24 24 24 24 23 23 21 20 22 26 30 34 37 39 38 36 37 37 38 40 40 42 47 50 51 51 51 48 43 42 43 40 38 38 36 32 28 23 20 20 21 22 22 22 27 32 32 32 32
23 24 24 24 24 25 26 27 29 30 29 28 27 25 24 24 24 23 24 25 25 23 21 23 27 31 35 39 41 39 38 37 37 39 41 42 45 48 50 51 52 49 45 44 43 41 40 40 38 36 33 27 23 22 22 24 24 23 26 32 33 34 34
24 25 26 26 26 26 27 28 29 31 32 31 29 27 25 24 24 24 25 26 27 27 25 22 23 27 32 37 41 42 40 38 37 37 38 41 44 46 50 52 52 50 47 44 42 41 42 42 39 38 36 30 26 26 24 23 23 22 25 31 34 34 33
25 26 27 27 27 28 29 30 30 31 33 33 31 29 27 26 26 26 26 26 27 28 28 26 23 24 29 35 40 43 42 40 39 40 38 38 42 45 48 50 52 51 49 44 42 42 43 43 39 38 38 33 30 29 25 23 22 22 25 33 35 33 32
27 28 28 28 29 29 30 31 31 31 32 33 32 31 29 28 27 28 28 28 28 28 29 29 28 25 26 31 37 41 43 42 40 42 43 40 40 44 47 48 50 52 50 45 43 43 44 43 40 38 39 37 34 33 30 27 24 21 24 32 36 34 33
29 29 30 30 30 30 31 31 31 31 32 32 32 32 31 30 29 29 30 30 29 28 28 29 31 30 26 27 33 37 41 43 41 41 44 45 42 43 45 46 48 51 51 47 45 44 45 46 41 37 39 39 37 36 34 31 27 24 25 31 35 35 34
29 30 30 31 31 31 31 31 31 32 32 32 32 32 32 31 31 31 31 32 31 30 29 29 30 32 29 26 30 35 38 43 44 42 43 47 47 44 43 45 47 48 48 48 47 44 42 44 41 36 38 40 38 37 36 33 30 31 32 32 33 35 35
29 30 30 30 30 31 31 31 31 32 31 32 32 32 32 32 32 32 33 34 33 32 31 31 31 32 31 27 27 31 34 38 43 45 45 46 48 46 43 44 46 46 46 49 50 47 44 44 42 36 37 41 38 37 37 34 34 36 35 34 33 35 36
29 29 28 28 29 30 30 29 30 31 31 32 32 32 32 32 32 33 34 35 36 35 34 34 33 33 33 31 28 28 30 34 38 43 47 47 47 47 45 45 45 46 48 51 51 50 47 45 43 38 39 42 39 38 37 35 36 38 36 35 34 34 36
28 27 26 26 27 27 27 27 28 28 29 31 32 32 33 33 32 33 34 36 37 37 37 36 35 35 35 35 33 30 29 32 35 39 44 48 48 47 45 45 46 46 48 51 52 52 50 46 43 39 39 40 38 39 37 33 35 37 36 36 35 33 34
26 25 25 26 25 25 26 27 27 27 28 29 31 31 32 32 33 34 35 36 37 38 38 37 37 36 35 36 37 36 34 33 34 36 40 45 50 49 45 45 47 47 49 52 53 53 52 48 45 41 40 40 39 39 37 34 35 38 38 38 38 36 36
25 24 24 24 24 25 26 27 27 28 30 29 29 30 31 32 34 35 36 37 38 38 39 39 39 38 37 36 37 39 40 38 35 35 37 41 47 51 49 45 46 48 51 53 55 54 51 48 47 46 45 43 42 41 40 38 38 39 39 39 39 39 38
24 23 23 22 24 25 26 28 29 30 30 29 27 28 29 31 32 34 36 37 38 39 40 40 40 40 39 38 36 37 39 39 38 37 37 38 41 48 52 49 46 48 51 53 55 55 53 51 49 49 48 45 43 43 42 41 41 41 41 41 40 39 39
24 23 23 23 26 27 28 30 30 30 29 28 27 28 29 30 31 32 35 37 38 40 41 42 43 42 41 40 37 35 36 38 39 40 38 38 40 44 50 53 50 48 50 52 53 54 54 54 52 50 48 45 44 44 43 42 42 42 42 41 40 39 40
23 21 22 25 28 30 31 31 31 31 30 28 29 30 31 31 31 33 35 37 38 40 42 44 45 44 42 42 38 34 35 37 40 41 39 39 41 42 46 53 53 48 48 51 52 53 54 54 52 51 48 45 45 45 44 43 43 43 43 43 42 42 42
21 21 22 25 28 31 33 33 33 34 34 33 32 32 32 33 34 35 35 36 36 39 43 45 46 45 44 43 40 36 35 36 39 41 39 38 41 42 43 49 52 49 48 50 51 53 54 54 53 51 48 46 45 45 45 44 44 44 43 44 45 45 44
21 22 25 29 33 36 36 36 35 35 36 35 33 31 33 35 35 34 35 36 36 39 43 45 45 45 44 43 42 39 38 37 37 40 40 39 41 43 43 46 49 48 48 49 51 52 54 54 53 50 47 45 45 44 43 44 45 44 43 43 43 43 43
24 25 29 33 37 38 37 36 35 34 35 34 32 32 35 36 35 34 35 37 38 40 43 44 44 44 44 43 41 39 39 40 39 39 41 40 41 43 44 45 48 49 49 49 50 51 53 54 53 50 47 46 45 43 42 43 43 44 44 42 40 40 41
25 26 30 34 35 36 35 35 36 35 35 34 34 36 38 38 37 36 36 37 38 39 41 42 42 43 43 43 40 37 39 42 42 40 41 41 43 45 43 43 48 51 50 49 50 51 53 55 54 52 50 47 44 42 41 41 40 41 42 40 37 37 38
22 25 31 34 35 35 35 36 38 37 36 36 37 39 40 39 38 37 36 35 36 38 38 38 40 42 43 42 39 36 38 43 44 42 40 41 44 44 42 42 47 51 50 49 50 51 52 54 53 51 49 47 44 40 40 40 39 39 38 37 37 36 36
22 27 32 35 36 36 37 38 39 37 36 37 39 40 41 40 38 37 35 34 35 37 36 35 37 40 41 39 36 36 38 43 45 43 40 41 43 42 41 43 48 50 50 49 48 49 51 53 52 50 47 45 42 39 38 39 40 39 36 35 36 36 36
23 29 35 38 38 38 38 39 39 38 37 40 41 41 42 42 39 37 36 34 34 36 34 32 34 36 36 35 33 34 39 42 45 44 41 41 42 41 42 45 46 47 48 48 47 48 51 52 51 49 46 44 41 39 39 40 41 38 36 36 35 34 36
26 32 38 40 40 39 38 39 39 39 39 40 39 39 39 40 40 38 36 35 34 33 32 29 30 33 34 33 31 33 38 42 44 44 43 42 42 42 43 44 42 42 45 47 47 47 50 53 52 50 48 45 41 40 40 41 41 39 38 37 35 34 35
28 34 39 42 41 39 38 39 39 39 38 36 35 36 36 38 39 37 33 31 30 30 30 29 30 33 34 33 32 33 37 41 43 43 43 43 43 44 43 41 39 39 42 45 47 47 49 52 53 52 50 45 41 40 41 42 41 40 39 37 37 37 36
28 33 39 43 43 39 37 38 38 37 35 32 31 33 34 36 36 31 27 26 27 28 29 30 32 33 33 32 31 34 38 42 43 43 44 44 44 43 42 39 38 39 41 44 46 47 49 51 52 52 50 46 42 42 42 41 40 39 39 38 38 37 34
28 32 36 42 44 40 36 35 35 34 32 30 28 29 31 32 30 24 19 21 24 24 27 30 32 31 30 28 29 33 38 41 41 42 43 43 43 42 40 39 40 40 41 43 45 47 50 50 50 49 47 44 40 38 38 38 39 39 39 38 37 34 31
28 31 34 40 44 41 35 33 33 31 30 28 25 25 27 26 24 19 15 16 19 20 23 28 28 26 26 27 31 35 37 38 40 42 43 43 42 41 40 40 40 40 41 44 46 47 48 48 46 46 44 40 37 35 36 39 41 41 39 38 37 35 34
27 30 33 38 43 40 34 33 32 30 29 27 23 22 23 22 19 16 15 16 18 18 19 22 22 21 22 26 30 32 32 34 36 39 42 42 40 40 41 39 38 39 42 45 46 45 45 45 44 43 40 37 35 36 39 42 43 42 41 39 39 38 35
26 29 31 35 41 38 33 33 33 30 28 25 21 19 19 18 17 16 15 16 18 19 20 22 23 22 22 25 27 28 28 28 31 35 37 38 38 39 40 38 38 41 44 45 44 43 42 42 41 39 36 35 37 39 42 44 45 44 43 43 41 37 34

ECMWFFLT1_850_spd_006.txt.gz
Wind_Speed
16 17 17 15 13 10 8 8 8 7 7 7 7 9 10 11 12 13 15 18 20 21 22 20 18 22 26 25 27 31 33 34 38 39 35 30 27 28 29 28 26 23 19 16 15 14 14 15 16 19 21 22 22 22 20 20 18 17 18 19 19 20 22
13 15 16 16 15 13 10 9 9 10 10 8 7 8 9 9 10 11 12 15 18 20 23 24 22 21 23 25 27 30 32 35 36 38 38 34 29 28 29 29 28 26 25 22 19 18 18 17 17 17 19 20 21 22 22 21 19 18 18 18 18 16 17
10 12 14 15 15 14 13 11 10 10 10 10 10 9 9 9 10 11 11 12 15 19 22 25 26 25 24 24 27 28 30 33 36 37 39 38 34 32 31 30 30 28 27 26 25 22 22 21 19 17 17 20 21 22 22 23 21 20 18 17 17 17 16
8 9 11 13 15 15 15 15 13 11 10 11 11 11 10 10 11 11 11 12 13 15 20 25 28 29 27 25 25 29 31 32 36 38 40 42 41 40 39 35 34 33 29 28 29 26 24 23 21 18 17 18 20 19 21 23 22 20 19 17 18 18 17
8 8 8 10 13 15 16 16 16 15 15 14 12 11 10 10 12 12 11 12 13 13 17 23 27 30 30 28 26 28 31 33 36 38 40 43 43 43 44 42 40 38 34 30 29 28 26 24 22 21 18 17 17 17 18 20 21 21 20 19 18 18 18
9 8 8 9 11 13 15 16 18 18 19 18 17 15 13 12 14 15 13 12 12 12 14 18 25 29 30 31 30 29 31 33 34 35 39 44 45 43 43 44 44 43 41 36 30 29 28 25 24 23 20 19 18 15 15 18 19 20 20 20 19 18 19
11 10 10 10 10 12 14 16 18 19 21 22 23 23 20 19 18 18 17 16 15 14 14 15 19 26 31 33 33 32 32 33 33 34 37 41 43 42 42 43 45 46 47 44 37 33 31 28 27 25 21 20 19 17 16 16 18 19 20 20 19 19 19
12 12 12 12 12 12 14 16 18 20 22 24 25 27 26 25 23 21 20 19 19 18 18 17 17 20 26 31 35 36 36 34 33 34 36 38 41 43 45 45 46 47 49 49 45 40 35 30 28 28 24 22 20 19 18 18 18 20 20 20 20 20 20
13 13 14 14 14 15 15 16 18 20 23 25 27 29 29 29 27 24 22 21 21 20 20 20 17 16 19 25 31 37 41 39 36 34 34 36 39 41 45 46 48 49 48 48 49 46 43 36 31 30 29 25 22 21 20 20 20 21 21 20 20 21 21
15 15 16 17 18 18 18 18 20 21 23 25 28 30 31 30 28 26 25 23 22 21 20 19 18 17 17 19 23 28 37 42 43 39 34 34 38 41 45 47 50 51 48 48 49 48 49 46 38 34 33 29 26 25 23 22 22 22 23 22 21 21 21
16 17 18 19 20 21 21 22 22 22 23 25 27 29 30 30 27 25 25 25 24 22 22 21 22 22 19 19 20 21 26 33 42 45 41 36 37 40 44 45 47 49 48 49 49 47 48 49 45 40 36 32 30 28 25 24 23 22 23 23 23 23 22
18 19 20 22 23 23 24 25 24 25 25 25 26 26 25 25 22 19 20 24 25 24 24 23 22 22 22 21 21 21 22 24 32 41 45 43 37 36 40 42 44 47 46 47 49 50 50 49 47 45 41 35 32 31 28 26 24 22 24 23 21 24 25
19 21 22 23 25 25 26 26 26 25 23 22 23 22 21 20 18 17 17 20 22 24 24 25 23 22 23 23 21 21 22 22 25 31 40 46 42 36 37 40 43 45 44 43 46 51 53 52 48 46 43 37 34 33 30 27 25 22 24 25 22 24 27
20 22 24 25 26 26 26 25 22 19 18 18 19 21 21 19 17 18 19 18 20 21 22 23 25 24 24 24 22 23 24 25 25 27 32 41 44 40 37 38 41 43 43 43 44 47 51 53 51 48 45 39 34 34 31 29 27 23 23 24 23 25 26
22 23 24 25 27 27 26 22 17 15 17 16 17 19 20 19 17 18 19 19 19 20 20 21 22 23 25 25 24 24 24 25 27 27 29 34 40 41 40 40 41 42 42 43 45 46 48 52 51 49 50 44 36 34 33 32 28 24 24 22 22 26 26
22 24 25 26 26 26 25 20 16 16 18 16 17 18 18 19 18 19 20 20 20 20 21 21 20 22 24 26 27 26 25 26 28 29 30 32 35 38 40 41 41 40 39 42 45 45 45 50 52 51 51 48 40 34 33 33 31 27 25 21 21 26 27
22 24 25 25 26 25 25 22 18 18 18 18 18 18 18 19 20 20 21 21 21 21 21 22 22 22 23 25 28 29 28 28 29 29 30 31 32 35 39 42 42 40 40 44 45 44 44 47 52 52 51 48 43 37 34 35 35 30 26 22 21 25 29
23 24 25 25 25 26 25 23 19 18 18 19 19 18 18 19 20 21 21 21 22 22 22 23 23 23 23 24 26 30 30 30 31 31 31 31 32 34 37 41 43 42 42 45 46 45 45 47 50 52 52 49 45 40 37 38 38 33 29 26 24 24 28
23 24 24 24 24 24 23 20 18 18 18 18 19 20 20 20 20 22 23 22 23 23 23 24 24 25 25 24 26 29 31 32 32 33 33 32 32 34 36 38 42 43 45 46 47 46 45 46 48 49 51 51 45 39 38 40 39 35 32 29 27 28 31
22 23 23 23 22 20 19 18 18 19 19 19 21 22 22 22 22 22 23 23 24 24 24 25 24 25 26 25 26 28 31 32 33 34 34 32 32 34 36 37 39 44 46 46 47 48 46 44 46 48 51 52 46 40 40 40 38 36 34 31 31 33 33
21 22 21 20 18 18 18 18 19 20 20 20 21 22 23 23 22 22 23 24 24 24 24 25 25 25 26 26 27 28 30 32 33 34 35 34 32 34 36 36 37 43 48 47 45 48 48 45 45 48 51 52 49 43 41 40 37 36 37 34 33 35 34
20 19 18 16 17 17 18 19 20 21 21 21 21 21 22 23 23 23 24 24 25 25 25 26 26 25 25 27 28 28 29 32 34 34 35 36 34 33 35 36 36 40 47 48 45 46 48 47 46 49 50 52 52 44 39 41 39 38 38 35 34 37 37
16 15 15 16 17 18 19 20 21 22 23 23 22 22 22 23 24 24 24 25 26 26 26 26 27 29 31 31 31 29 27 30 33 33 34 36 36 35 36 37 36 38 44 49 48 47 49 48 48 50 51 53 56 49 42 41 40 39 38 35 36 41 40
13 14 15 16 17 19 20 21 22 23 23 23 22 22 23 24 24 25 25 25 26 26 25 27 29 32 35 37 36 34 31 30 32 33 34 36 37 37 37 36 36 37 41 48 50 50 50 50 48 50 51 53 54 53 48 44 41 42 40 37 38 42 41
13 14 15 17 18 19 20 21 22 23 22 22 22 23 23 23 24 25 25 26 27 27 27 29 32 34 37 39 39 39 38 35 34 33 34 35 37 38 37 36 36 36 38 43 49 51 53 52 49 47 50 52 52 54 52 47 44 45 43 41 41 41 41
13 14 15 16 18 19 21 21 21 22 22 22 23 23 24 24 25 25 26 27 28 29 29 31 33 37 39 40 40 40 40 39 37 36 35 35 36 37 37 36 35 36 37 38 41 47 52 55 52 47 48 51 52 55 54 49 46 46 46 46 45 43 42
13 14 14 16 18 20 22 22 21 21 21 22 23 24 25 26 27 27 27 28 28 29 30 31 34 37 39 41 41 42 42 41 40 39 39 39 38 36 37 37 36 35 37 37 39 43 48 51 52 50 48 50 52 55 55 52 49 48 47 47 46 44 42
13 13 15 17 19 21 22 22 22 21 21 22 23 24 25 26 28 29 29 29 29 30 31 33 36 39 41 42 42 42 43 43 41 40 40 41 43 40 36 37 38 36 35 37 39 41 43 46 49 50 48 49 52 53 53 54 53 51 49 46 44 41 40
13 14 17 19 20 22 23 23 23 22 22 23 23 24 27 29 30 32 31 30 31 32 32 33 36 40 41 41 41 42 42 43 42 41 40 40 43 44 39 36 38 38 36 36 38 39 40 42 46 50 49 48 50 51 51 53 53 50 48 46 42 39 37
13 15 18 20 21 22 22 22 23 23 23 24 25 28 31 31 30 30 30 30 32 34 34 33 35 38 39 39 40 41 41 41 41 41 41 39 40 44 45 39 37 38 38 38 39 40 41 42 45 49 49 47 49 51 50 52 53 50 48 45 41 38 35
14 16 19 21 22 23 24 24 24 24 23 25 28 31 31 29 29 28 30 33 36 37 38 37 37 39 38 37 38 40 40 39 39 39 41 40 38 40 45 43 39 38 38 38 39 41 42 44 45 47 47 47 48 50 50 51 53 52 49 44 40 37 35
14 17 20 21 23 25 28 28 26 24 23 25 29 30 28 27 28 30 32 35 38 38 39 39 38 38 38 36 37 39 39 39 39 38 38 38 36 37 40 42 41 41 39 37 39 41 41 42 45 48 48 47 47 50 51 51 52 51 47 43 39 37 35
15 18 21 22 23 25 29 30 28 26 26 28 28 27 26 25 29 33 34 34 34 36 37 37 35 35 36 36 37 38 39 39 39 37 35 35 35 34 36 38 40 42 42 39 40 40 39 39 44 49 49 47 47 50 50 50 51 49 44 40 36 34 35
16 19 20 21 24 26 28 29 28 27 27 27 26 25 25 26 30 33 31 29 31 34 34 33 31 31 33 34 34 35 38 39 38 36 34 34 33 33 34 37 38 40 42 43 42 39 35 36 40 45 47 45 45 47 47 48 51 49 43 38 36 35 37
16 18 19 22 24 25 26 28 28 27 25 25 25 26 26 25 29 31 28 25 29 32 31 30 29 29 30 31 30 33 37 38 37 35 34 33 33 33 35 37 37 37 39 43 44 39 34 32 35 40 43 42 41 43 44 46 50 48 42 37 37 37 39
16 17 20 22 24 25 28 30 28 26 24 24 26 26 26 27 29 30 27 24 27 30 29 28 28 27 28 29 29 31 35 35 35 36 36 34 33 34 36 37 38 37 37 39 41 38 35 33 33 36 39 38 39 42 43 45 47 45 40 37 37 38 38
15 17 20 22 22 24 29 29 25 23 24 24 24 25 27 28 28 28 27 24 25 28 28 26 26 26 27 26 26 28 31 32 33 36 37 35 33 34 35 36 37 37 36 36 35 35 34 33 34 35 38 38 38 40 43 44 44 41 37 37 38 38 37

ECMWFFLT1_850_spd_009.txt.gz
Wind_Speed
3 7 10 11 11 11 11 9 5 4 5 7 7 8 8 9 10 11 12 12 13 14 15 17 17 17 17 18 20 22 25 28 31 33 34 32 30 32 37 37 32 31 28 22 20 18 16 14 17 20 21 22 24 23 22 21 20 19 20 21 20 20 21
5 6 6 6 9 10 11 11 9 6 5 6 7 8 8 8 10 10 11 12 14 14 15 16 17 18 19 20 20 20 22 24 27 30 32 33 33 32 36 38 35 34 31 26 23 21 21 19 17 17 20 21 23 24 24 23 22 20 20 22 21 20 20
5 5 4 6 8 9 9 10 10 9 7 7 7 8 8 9 9 10 11 12 13 14 15 17 18 20 21 23 23 20 21 24 26 28 31 33 33 33 36 37 35 34 33 29 26 24 23 22 22 20 18 19 20 22 23 24 24 23 21 22 21 20 19
7 6 6 7 8 8 8 10 10 8 8 9 11 10 10 11 10 11 13 13 13 14 15 17 19 20 22 25 26 23 22 24 27 30 31 33 34 34 38 39 36 34 33 32 30 26 24 24 24 24 21 19 18 19 19 21 23 23 22 22 22 20 19
10 8 8 8 8 9 9 10 9 8 8 9 10 10 10 12 13 14 15 15 15 14 14 16 18 19 20 23 25 26 26 24 26 30 32 32 33 35 39 41 38 36 34 33 32 29 25 24 23 25 24 21 20 19 18 21 23 22 22 23 22 20 19
12 10 10 10 10 10 9 10 10 9 9 9 10 12 13 15 17 17 18 17 17 16 16 17 18 18 19 20 22 25 28 28 26 30 32 31 31 33 37 41 42 41 39 36 35 35 30 26 24 25 26 24 23 21 17 20 21 19 21 23 22 21 20
14 12 11 11 11 10 10 11 12 12 12 13 14 16 18 20 20 21 21 21 20 19 20 20 21 19 19 20 22 24 28 30 30 30 31 32 32 33 34 38 42 45 44 41 41 41 38 35 33 30 27 26 25 24 20 19 20 17 18 22 23 22 20
16 14 13 13 12 12 12 13 14 14 15 16 17 19 21 23 24 25 26 26 24 22 22 22 22 22 21 21 22 24 25 28 32 33 31 31 34 35 34 35 38 43 46 45 45 46 42 40 40 37 31 26 23 24 24 20 20 19 18 19 21 23 21
17 16 15 15 15 14 14 14 15 16 17 18 19 21 23 25 27 28 29 30 28 26 24 23 22 23 24 24 22 23 26 27 30 34 34 33 34 36 36 37 38 40 44 44 44 46 45 43 42 41 38 33 26 24 24 22 21 19 18 18 20 23 22
19 18 16 16 16 16 16 17 18 19 20 21 22 23 25 26 28 30 31 30 29 27 25 24 23 22 23 24 22 21 24 26 26 29 33 35 34 33 34 37 39 39 41 42 43 45 45 46 45 43 42 41 36 29 26 24 23 20 19 20 21 22 21
21 19 18 18 18 18 18 19 20 21 22 23 24 25 26 28 29 29 29 29 26 25 25 24 23 22 21 22 23 23 23 23 25 26 28 32 35 35 34 34 35 37 38 39 42 44 45 47 48 46 44 43 42 38 32 27 23 22 21 22 23 24 23
22 21 20 20 19 19 20 21 22 23 24 25 26 27 28 29 28 25 24 24 23 22 23 23 22 22 22 21 23 26 26 23 25 27 26 28 31 35 37 37 36 35 36 38 40 42 45 47 48 47 45 45 45 43 39 34 30 27 23 22 25 27 26
22 22 21 21 21 21 21 22 23 24 25 26 27 28 28 27 25 22 21 22 21 21 21 22 23 23 22 21 22 25 26 24 25 27 27 27 27 30 34 38 40 38 35 36 38 40 42 45 48 48 48 48 47 44 42 42 41 37 29 23 25 29 28
22 21 21 21 22 22 23 23 24 25 25 26 27 27 27 26 24 22 22 21 21 22 21 22 22 22 22 22 22 24 25 25 26 27 28 28 28 28 29 32 38 41 39 37 37 38 39 40 44 48 49 50 49 46 44 45 45 43 36 26 24 29 28
22 21 21 21 22 22 23 24 24 24 25 24 24 23 24 25 24 23 22 22 22 22 22 22 22 22 23 23 24 24 25 26 26 27 28 29 29 30 30 30 32 35 39 40 38 37 37 39 42 46 49 51 51 49 47 45 43 42 39 29 22 26 28
21 21 20 21 22 23 23 23 23 23 23 22 21 21 22 23 23 23 22 23 23 23 23 23 23 24 24 24 25 25 26 27 27 27 28 29 29 30 31 32 31 31 34 39 41 39 37 40 43 44 46 49 51 51 49 47 44 43 41 33 23 24 31
20 20 20 21 22 22 22 23 22 22 23 22 21 21 22 21 22 23 23 24 24 24 24 23 24 25 25 26 26 26 27 27 28 28 28 29 30 30 31 32 32 31 32 36 43 45 40 38 40 41 40 43 47 49 48 49 48 45 43 38 28 24 31
19 20 20 21 21 22 23 22 22 23 22 21 21 21 21 21 22 23 23 24 24 24 24 24 25 26 26 27 27 27 27 27 28 29 29 30 30 31 32 32 31 31 32 35 40 45 45 41 40 42 43 44 44 44 45 49 51 47 43 42 35 27 29
18 19 20 21 22 23 23 23 23 22 21 21 21 21 21 22 22 23 23 24 25 26 25 25 26 26 27 27 28 29 29 29 29 30 30 31 31 32 33 33 32 32 33 36 36 39 43 43 42 43 45 46 45 42 42 46 50 48 45 44 39 31 29
17 19 20 21 22 23 23 23 22 22 20 21 21 22 22 23 23 24 24 25 26 26 26 26 26 27 27 27 28 30 31 31 31 31 32 33 33 33 34 34 34 34 34 36 36 37 39 42 44 44 44 46 48 47 44 43 46 49 49 47 40 36 35
17 19 21 22 23 23 22 21 20 20 21 21 22 22 23 24 24 24 24 25 26 26 26 27 27 27 27 27 28 30 31 32 32 33 33 34 34 35 35 35 36 36 36 37 37 37 38 39 43 45 44 44 47 49 45 40 41 47 51 50 42 39 39
19 20 20 20 20 19 19 19 20 21 21 21 22 23 23 24 25 25 26 26 26 26 27 28 28 27 28 27 27 28 29 31 32 33 34 34 35 35 35 36 37 38 39 39 38 39 39 38 41 44 45 44 46 50 47 39 38 45 51 52 44 39 41
17 17 18 17 16 17 18 19 20 20 20 21 22 23 24 25 26 26 27 27 27 27 28 28 28 28 30 31 30 29 29 29 30 32 33 34 35 35 34 35 37 39 41 41 41 42 43 42 42 43 45 45 43 49 51 44 42 47 51 51 45 41 44
14 14 15 15 16 17 17 18 19 19 20 22 23 23 24 25 25 26 27 27 28 27 27 28 28 29 31 34 35 34 32 30 30 31 32 33 34 35 35 35 35 37 40 42 43 44 45 46 46 45 46 47 44 45 47 46 46 49 51 50 45 41 44
13 14 14 15 16 16 17 18 18 19 21 23 23 24 24 25 25 26 27 28 28 29 29 28 30 33 33 34 36 38 37 35 32 31 33 34 33 34 35 35 35 35 37 41 42 43 44 46 49 49 48 48 48 46 45 44 45 48 51 51 47 43 43
13 14 14 15 15 16 17 18 18 19 22 23 23 24 25 25 26 26 27 28 29 30 30 30 32 35 37 37 37 39 42 42 38 36 35 35 35 35 35 35 35 35 36 37 40 41 41 42 45 49 50 50 50 50 49 46 45 47 49 50 48 46 47
13 14 14 15 16 17 17 17 18 20 23 23 23 23 24 25 26 26 27 28 28 30 30 30 32 34 36 39 39 40 42 43 41 40 39 37 37 37 36 36 36 36 35 35 36 39 39 38 39 42 47 51 52 53 53 50 48 46 46 49 49 47 48
13 14 15 16 16 17 17 18 19 22 23 22 22 22 23 25 25 26 26 27 28 30 29 29 31 34 36 38 39 41 45 45 43 41 40 39 40 39 39 38 38 38 37 36 36 37 37 38 37 37 41 47 52 54 55 54 52 48 46 49 49 44 44
13 14 15 16 17 17 18 18 21 23 24 22 22 23 24 25 26 26 27 28 29 31 31 30 31 34 35 37 37 39 43 44 44 43 41 40 41 41 41 41 40 40 41 42 41 37 36 38 37 36 39 42 45 49 53 55 55 52 48 48 49 45 40
14 15 16 17 17 18 18 19 22 25 25 23 23 25 26 26 25 26 28 28 29 32 32 31 31 33 35 36 36 38 38 37 38 40 41 40 40 41 42 43 42 40 43 47 46 39 35 37 38 38 39 39 39 40 43 46 50 52 47 44 48 49 45
14 15 16 17 17 18 19 20 23 27 27 25 24 26 26 26 26 27 28 29 30 33 34 32 32 34 35 36 38 40 40 38 38 39 39 40 40 41 43 44 44 43 42 46 48 44 37 35 38 40 40 39 39 37 37 39 44 48 47 42 44 47 47
15 15 16 17 18 19 20 21 25 27 24 23 25 26 25 26 28 28 28 29 30 33 35 35 35 36 37 38 38 40 40 41 43 42 39 39 39 40 41 43 45 47 46 45 48 47 42 36 37 40 40 40 39 38 38 40 41 44 46 45 43 44 46
14 15 16 17 18 19 19 21 25 26 23 22 24 25 24 27 29 29 28 29 30 31 34 36 37 38 38 38 37 38 39 42 44 43 41 39 38 39 40 40 42 45 46 47 49 49 45 40 38 39 41 41 39 38 40 40 39 41 43 44 42 41 41
13 15 16 17 18 18 18 21 25 25 23 22 23 24 25 27 29 29 29 29 30 33 35 36 38 37 36 36 36 37 40 42 43 44 43 41 39 39 39 38 38 40 41 44 49 52 47 41 40 40 41 40 38 37 39 39 37 39 41 40 42 44 44
13 15 16 17 19 19 19 23 24 22 21 22 22 24 26 27 28 29 29 29 31 34 35 35 36 36 35 36 37 38 38 39 40 42 43 41 39 39 38 36 35 36 37 38 44 51 49 41 39 40 39 40 39 37 39 38 35 36 39 38 40 44 45
13 15 15 16 18 19 20 22 22 20 20 21 22 23 25 26 27 28 30 33 34 34 33 32 33 34 34 35 36 35 34 34 34 38 41 41 40 38 36 35 34 33 33 32 36 47 50 43 38 36 35 38 39 38 39 38 33 33 37 38 39 41 42
14 14 15 16 17 18 20 21 19 18 19 20 21 22 23 23 25 28 32 36 37 35 34 32 31 32 32 33 33 31 29 29 30 35 40 41 41 39 36 34 32 30 29 27 30 41 49 45 39 35 33 36 39 38 39 37 33 32 35 37 39 41 41

ECMWFFLT1_850_spd_012.txt.gz
Wind_Speed
7 8 7 6 6 8 9 11 10 8 5 2 3 5 4 4 6 9 10 12 12 13 13 14 15 15 15 16 16 17 17 19 21 24 27 29 31 33 34 35 34 32 29 27 25 20 17 14 13 17 21 23 25 27 28 26 24 24 25 25 24 22 23
8 6 4 4 5 6 7 9 9 9 9 6 5 4 4 4 4 6 8 10 11 12 13 14 14 14 15 16 17 18 20 21 21 22 23 25 27 30 32 33 31 30 33 33 30 28 26 22 15 13 16 19 24 27 28 27 26 24 24 24 24 23 23
8 4 3 6 7 6 7 7 8 9 8 7 7 7 6 6 6 6 7 7 9 11 14 16 17 18 18 19 20 20 21 22 22 22 23 23 25 26 28 30 29 30 33 35 37 36 33 28 23 17 14 14 20 25 27 29 29 27 26 26 25 26 27
10 9 7 8 9 8 7 7 8 7 7 7 9 10 10 9 11 11 11 11 11 12 13 14 17 18 19 19 21 22 23 24 23 23 24 24 25 25 26 28 30 33 35 36 38 39 37 33 29 25 21 17 17 20 24 29 31 29 28 30 29 29 30
14 13 11 10 10 10 9 9 9 7 7 8 9 9 9 10 13 14 14 15 15 15 15 15 15 16 17 17 19 21 23 24 23 23 25 26 26 27 28 29 30 33 35 35 35 37 37 35 32 31 31 26 21 20 19 22 29 32 29 30 31 29 30
16 15 14 13 13 12 11 10 10 9 9 9 9 10 11 13 16 16 17 18 18 19 19 19 19 18 18 19 20 21 22 23 23 23 25 27 28 28 28 29 31 33 35 36 35 35 35 35 34 34 35 33 29 26 21 19 24 29 30 31 30 29 30
18 17 16 16 15 14 12 11 12 13 13 12 13 14 15 17 19 19 20 21 21 22 23 23 22 22 22 22 22 23 23 24 25 25 26 28 29 28 27 28 30 31 33 35 36 36 36 35 35 35 34 32 31 29 27 25 21 21 26 30 29 27 29
19 19 18 17 17 16 14 14 15 15 15 16 16 17 18 19 21 22 23 24 25 26 27 27 25 23 23 23 24 25 26 27 27 28 29 29 30 30 28 28 29 30 30 32 35 37 39 38 37 36 33 30 29 28 29 30 25 21 22 26 27 26 27
20 20 19 18 18 17 16 16 17 17 18 18 19 20 20 21 22 23 24 26 28 28 27 27 26 24 22 22 24 26 27 28 27 28 29 30 30 31 32 30 29 29 29 30 33 35 38 41 40 38 35 32 31 30 30 31 31 28 23 21 24 25 26
22 21 20 19 19 19 18 18 18 19 19 20 21 21 23 24 24 24 26 28 28 27 25 24 24 22 21 21 24 26 26 26 26 26 27 29 31 31 32 32 32 31 30 31 33 33 34 40 43 42 41 38 36 35 33 31 33 33 27 22 21 20 24
22 22 21 20 20 20 20 20 20 20 21 22 22 23 24 25 25 26 27 28 27 25 23 23 22 22 21 20 21 25 26 24 23 24 25 27 29 29 29 31 33 34 33 31 31 32 34 37 41 44 44 43 41 40 38 34 35 35 31 29 24 16 19
22 22 22 21 21 21 21 21 21 22 22 23 23 24 25 26 26 27 27 27 26 24 23 22 22 21 21 22 22 23 25 25 23 24 26 26 25 26 28 29 31 34 35 34 32 32 34 35 38 40 41 42 43 42 41 37 37 38 35 34 29 18 15
22 22 22 22 22 22 22 22 23 23 23 23 24 25 26 27 27 26 26 25 25 24 23 22 22 21 21 22 23 24 24 25 24 24 25 26 24 24 26 27 29 31 33 36 36 34 33 34 36 38 39 40 42 43 42 40 40 43 40 37 33 25 17
22 22 23 23 23 22 22 22 23 23 23 24 25 25 26 26 26 26 26 25 25 24 23 22 21 21 21 22 23 24 24 24 24 23 23 25 25 24 25 26 27 28 29 32 35 36 36 34 34 36 37 38 40 40 42 43 43 44 44 42 36 30 25
22 23 23 24 23 22 22 22 22 23 23 24 25 25 26 26 25 26 26 26 25 24 24 23 21 21 22 22 23 23 23 23 24 25 25 26 26 25 25 27 27 27 28 28 31 33 36 35 34 35 35 35 36 37 39 42 43 43 44 44 39 35 36
23 23 24 24 24 23 22 22 21 22 23 24 24 24 24 24 24 25 26 26 25 24 24 23 22 22 22 22 23 24 24 24 25 26 27 28 29 27 27 27 28 28 28 29 30 31 33 34 35 36 36 35 36 37 39 41 43 44 44 43 41 39 41
23 23 24 24 23 22 21 20 20 21 22 23 23 23 23 23 24 25 26 26 25 24 24 24 23 23 23 23 23 24 25 26 26 27 27 28 30 30 29 29 29 28 29 29 29 30 32 33 34 35 37 38 38 38 39 40 41 43 44 43 42 41 42
22 23 23 23 22 21 20 19 20 20 21 22 22 22 23 23 24 24 25 25 25 25 25 24 23 23 23 23 24 25 25 26 27 28 28 28 29 29 31 31 30 29 30 31 31 29 30 31 33 35 36 38 39 38 38 39 39 40 41 43 43 40 42
21 21 21 21 20 19 19 19 19 19 20 21 21 22 23 23 23 24 24 25 25 25 25 25 24 24 24 24 25 25 26 27 28 29 30 30 30 30 30 31 32 31 31 32 33 32 30 28 31 35 37 38 38 37 37 39 40 39 39 42 43 40 41
20 19 19 19 18 18 18 18 18 19 19 20 20 22 23 24 24 24 25 25 25 25 26 25 25 25 25 26 26 26 27 28 28 29 30 31 31 32 32 32 33 33 33 33 33 35 35 32 29 31 35 38 38 37 37 38 40 40 38 38 40 40 40
18 17 17 17 17 17 17 18 18 18 19 20 21 22 23 24 24 24 24 25 25 25 26 26 26 26 26 26 26 26 27 28 28 29 30 31 32 32 33 33 34 35 36 35 34 33 35 36 34 32 33 36 38 39 40 40 40 40 38 37 36 37 39
16 16 17 18 18 18 18 18 18 19 20 21 22 22 22 22 22 23 24 25 26 26 27 28 28 28 27 27 27 27 27 27 27 27 28 30 32 33 33 35 36 37 38 38 37 35 34 36 38 37 35 33 35 38 40 42 42 41 40 38 37 36 38
17 17 17 17 17 17 17 18 19 20 21 21 21 21 21 21 22 24 25 25 26 27 28 29 29 29 29 29 30 32 32 32 31 30 29 30 31 32 33 34 35 37 38 39 39 39 39 38 39 41 40 37 34 34 37 40 42 42 42 42 40 39 41
16 16 16 15 15 16 16 18 19 19 20 20 21 20 21 22 24 25 25 26 27 27 28 29 29 29 29 30 32 33 36 37 37 37 37 36 35 34 33 34 36 37 37 37 39 40 41 42 42 44 45 43 40 38 37 37 38 38 40 42 42 40 42
14 13 13 13 15 16 17 18 19 19 20 20 20 21 22 25 26 26 26 27 28 29 30 30 30 30 30 31 33 34 37 38 40 41 42 42 41 40 37 36 37 38 37 37 36 37 39 40 41 43 45 47 46 45 43 41 39 37 37 40 42 42 42
12 11 12 14 15 16 18 19 19 20 20 20 21 22 24 26 26 26 26 27 29 30 30 30 30 31 32 33 34 35 38 39 41 42 43 43 44 43 41 40 40 40 40 39 37 37 38 37 37 37 40 45 48 49 49 47 45 42 38 38 40 43 45
11 11 13 14 15 17 19 19 20 20 19 20 22 25 28 30 29 27 26 27 29 30 31 31 31 31 33 34 34 36 39 41 42 44 44 45 44 44 43 42 42 42 42 41 41 39 37 36 34 33 34 39 44 48 49 51 52 49 45 41 41 42 42
10 11 13 14 16 18 18 19 19 19 19 21 24 28 31 32 31 29 28 28 29 32 32 32 32 31 31 32 33 35 39 42 44 46 47 47 47 47 46 46 45 44 44 43 43 42 40 36 34 33 33 34 38 42 45 48 52 53 52 49 45 42 40
10 12 13 15 16 16 17 17 18 19 20 23 27 30 32 31 30 31 30 29 30 33 33 33 32 32 32 33 34 36 38 41 43 46 47 47 47 47 48 49 50 49 46 45 44 44 44 41 38 37 36 33 33 36 41 44 45 48 51 53 52 48 44
10 12 13 14 15 15 16 17 18 18 21 24 27 28 29 31 31 31 30 29 31 33 34 33 33 33 34 35 37 39 41 42 44 46 47 47 45 44 44 44 46 48 48 47 45 43 44 44 43 43 41 37 33 32 36 40 41 41 43 45 48 51 50
10 12 12 13 14 15 16 17 18 20 23 26 28 28 29 31 31 29 28 29 31 33 34 34 33 34 34 34 36 38 40 42 44 46 47 47 46 45 44 42 41 43 45 46 44 42 42 44 45 46 46 42 38 35 33 34 38 40 39 37 37 41 48
10 10 11 12 13 15 17 18 19 20 22 26 28 30 31 33 31 29 29 30 30 31 33 33 32 33 34 34 35 38 40 42 45 45 46 47 47 46 46 44 42 42 43 43 43 43 42 42 44 47 47 45 44 40 34 31 34 39 40 38 34 34 41
8 9 10 11 14 16 17 17 18 21 23 26 28 30 30 31 31 29 29 30 30 30 31 32 32 32 34 34 35 38 40 43 45 45 45 45 46 46 46 46 45 45 44 44 43 44 44 44 46 47 47 48 48 42 34 31 34 38 40 39 37 35 38
8 10 11 13 14 15 15 16 19 22 25 27 30 30 29 29 29 29 29 29 29 28 28 30 31 33 34 34 33 34 37 40 42 44 45 45 45 47 47 47 47 46 44 44 44 44 44 45 47 48 48 51 52 45 36 31 30 33 38 39 38 37 37
9 11 12 12 13 14 16 16 18 21 25 29 30 29 28 27 28 30 30 29 29 29 29 31 34 35 36 36 35 33 34 37 38 40 43 44 45 46 47 47 48 46 44 44 44 43 43 43 44 46 48 51 53 47 40 35 27 27 33 38 37 37 37
9 10 11 12 14 15 16 16 18 23 26 27 26 25 26 27 29 31 31 31 32 33 35 37 38 39 38 38 37 34 32 32 34 37 40 44 45 46 47 48 48 47 45 44 43 41 41 41 42 42 42 45 51 49 43 39 31 28 31 34 35 35 36
8 9 10 13 14 14 15 17 20 22 23 22 24 26 29 31 33 33 33 35 38 40 40 41 41 41 41 41 39 37 34 31 31 33 38 42 44 46 48 48 48 47 46 44 42 40 40 40 39 38 34 35 45 51 47 41 35 30 32 35 34 35 35

ECMWFFLT1_850_spd_015.txt.gz
Wind_Speed
7 6 5 3 2 4 6 7 9 11 11 11 10 9 8 6 4 4 6 8 11 13 14 14 15 15 16 15 14 13 13 13 14 16 19 19 20 24 26 27 28 30 31 29 24 19 16 17 17 17 19 23 26 28 29 29 28 30 31 31 32 30 28
10 9 7 5 3 3 4 5 7 9 9 9 8 8 8 7 6 6 6 5 6 7 10 12 14 15 16 18 18 17 16 16 16 17 18 19 20 21 22 23 26 28 30 32 30 30 29 27 24 22 19 18 23 28 30 29 28 30 31 31 31 29 27
11 10 9 7 5 3 3 3 5 7 8 9 8 8 8 8 7 8 8 8 8 7 7 8 10 12 15 17 19 20 20 20 20 20 20 20 21 22 21 21 23 25 27 29 30 33 35 34 32 31 27 21 21 25 28 30 30 30 32 32 31 29 27
11 11 10 8 7 6 5 4 5 6 7 8 9 9 9 9 10 10 11 11 11 11 10 10 10 11 12 14 17 20 22 23 23 23 23 23 22 23 23 22 24 25 25 27 28 30 34 36 36 36 34 28 23 21 22 26 30 31 32 33 32 30 29
12 12 11 9 9 9 7 6 5 6 6 7 9 10 10 11 12 12 13 13 14 13 13 14 14 14 14 14 15 18 21 24 25 25 26 26 25 25 24 24 25 26 26 26 27 27 30 33 33 34 36 33 29 27 22 20 24 27 30 32 32 32 30
14 13 12 12 12 11 9 7 7 6 6 7 8 9 10 11 12 13 14 14 14 15 15 17 18 18 18 17 17 17 19 21 23 25 27 28 27 26 26 26 26 27 27 27 28 28 28 31 31 33 37 35 34 35 30 25 23 22 25 29 32 33 32
15 15 14 14 14 13 11 10 9 8 7 7 7 8 10 11 13 14 15 16 16 16 17 18 19 18 18 18 19 19 20 21 23 25 27 28 28 27 27 28 28 28 28 27 28 29 29 31 32 33 35 34 33 36 36 32 28 25 23 25 27 30 33
15 15 15 15 15 14 13 12 11 10 9 9 9 10 11 13 14 15 17 17 18 18 19 20 19 18 16 16 17 19 20 21 23 26 28 29 29 28 28 29 30 30 29 28 27 29 30 31 32 33 34 34 32 34 35 33 31 30 29 26 24 25 30
15 15 16 17 17 16 15 14 13 12 11 11 11 12 13 14 15 16 17 18 19 20 20 20 20 18 17 16 15 16 19 21 23 25 27 29 30 30 29 29 30 31 32 31 29 28 28 30 31 33 34 35 33 32 33 31 31 32 32 31 27 22 24
14 14 15 16 17 18 17 16 14 13 13 13 13 14 15 15 16 17 18 19 20 21 21 21 21 19 18 17 17 17 16 17 21 24 26 27 28 29 29 28 27 30 33 33 33 31 30 29 30 31 33 35 36 35 33 31 32 34 33 32 30 25 24
13 13 14 15 17 18 18 17 15 14 14 15 15 16 16 17 18 19 19 20 21 21 22 23 22 21 19 19 19 19 18 16 17 20 23 25 25 25 27 27 26 27 30 32 33 33 32 31 30 31 32 33 35 36 36 34 35 37 35 33 33 29 26
13 12 13 15 17 18 18 17 16 16 16 16 17 17 17 18 19 19 20 21 22 22 23 23 23 22 20 20 20 20 20 19 19 19 20 23 25 25 25 27 27 26 25 27 30 32 33 33 32 32 32 31 33 36 38 37 36 40 40 38 37 35 31
13 13 13 14 16 17 18 17 17 17 17 17 18 17 18 18 19 20 21 22 22 23 23 23 23 22 21 21 21 21 21 20 21 22 21 20 23 25 24 25 26 26 23 23 26 28 30 31 32 33 33 32 32 34 37 38 38 41 43 41 41 40 36
14 14 14 15 16 17 18 18 18 18 18 18 18 18 19 19 20 20 21 22 23 23 24 24 24 23 22 22 21 21 22 22 22 23 23 22 21 22 23 23 24 25 24 23 24 25 27 29 30 31 32 33 33 33 35 37 38 40 41 40 40 40 38
15 15 15 16 17 17 18 18 18 18 18 18 18 18 19 19 20 21 22 23 23 24 24 25 24 23 22 23 23 23 22 22 22 22 23 24 23 23 24 25 27 27 26 25 24 23 25 27 28 29 30 31 32 34 34 35 36 37 39 38 37 38 38
17 17 17 17 18 18 18 18 18 18 18 18 18 18 19 20 21 22 22 22 23 23 24 24 24 23 22 24 25 25 23 22 23 23 23 24 24 24 25 25 27 28 28 28 27 24 23 24 26 28 29 30 31 32 32 34 34 35 36 37 37 37 37
18 18 18 18 19 18 18 18 18 18 18 18 18 18 19 20 21 21 22 23 23 24 24 24 23 23 24 25 26 26 24 23 23 23 24 24 25 25 26 27 27 27 28 29 30 29 26 23 24 26 28 30 31 32 32 33 34 34 35 36 36 36 35
20 19 19 19 19 19 18 18 18 17 16 16 17 18 19 20 20 21 22 23 24 24 24 23 23 24 25 27 28 28 26 24 24 25 25 25 25 25 26 27 28 28 28 29 31 31 30 27 26 26 26 27 29 31 32 33 34 35 35 37 36 35 34
21 20 19 19 18 18 18 17 16 15 15 15 16 18 19 19 20 21 22 23 24 24 23 23 24 25 26 27 28 28 26 26 26 27 28 28 28 27 26 26 26 27 28 30 30 31 32 31 29 28 28 28 28 29 30 33 34 35 36 38 37 37 36
21 20 19 18 18 17 16 15 14 13 14 15 16 17 18 19 20 22 23 23 22 21 20 21 21 22 23 24 25 26 27 27 28 29 28 28 28 29 29 28 27 26 26 28 29 30 31 32 32 31 29 29 30 30 30 31 33 35 38 39 39 38 38
20 19 18 17 17 16 15 13 13 13 14 15 16 17 18 20 21 21 21 21 22 22 23 23 24 24 23 22 22 23 25 27 29 30 30 29 29 29 29 29 29 29 27 27 27 28 29 31 33 34 33 30 30 31 30 30 31 33 36 38 39 39 37
20 18 17 17 16 15 14 12 13 13 14 15 16 17 19 20 20 21 22 23 25 26 27 28 29 30 30 29 28 27 28 29 31 33 34 34 34 33 32 31 31 30 30 29 28 27 28 29 31 34 36 34 32 31 30 29 29 30 32 34 36 38 38
19 18 17 16 15 14 13 12 13 13 14 15 16 18 19 19 20 22 24 26 28 29 31 32 32 33 34 34 35 34 34 34 34 35 37 38 38 38 37 36 35 34 33 32 32 31 31 31 31 32 34 36 37 36 34 34 33 32 32 33 33 34 36
19 18 17 16 15 13 12 12 12 13 14 16 17 18 19 20 22 24 26 28 30 32 33 34 35 37 36 33 33 35 37 38 37 37 38 39 40 41 41 40 40 39 38 37 36 35 35 35 35 34 34 36 38 39 39 39 39 38 37 36 35 33 35
18 17 16 14 12 11 10 11 12 14 16 17 19 20 21 23 24 26 28 29 31 33 34 37 39 39 36 31 29 30 33 36 38 39 40 41 42 43 43 43 42 42 42 41 41 40 39 38 38 37 37 37 38 40 42 42 42 41 40 40 39 38 37
17 16 14 11 10 9 10 12 14 17 18 19 20 21 22 23 25 26 28 29 32 35 37 39 40 38 35 31 30 30 31 33 35 37 39 41 43 44 44 44 44 44 44 43 42 42 42 42 42 41 40 39 39 39 41 44 44 44 43 42 43 44 43
15 13 11 9 9 11 12 14 16 18 19 19 20 21 22 24 25 27 29 32 35 38 39 40 39 36 33 31 31 31 32 34 35 36 37 38 40 42 43 44 45 45 45 44 43 43 42 42 43 43 44 43 42 41 40 41 44 45 45 44 45 47 47
12 11 10 10 11 12 13 14 16 17 18 18 18 20 22 24 26 29 32 35 37 39 40 40 38 35 33 32 32 32 34 35 37 39 40 40 41 42 42 43 44 44 44 44 43 42 42 42 42 43 45 45 45 45 43 40 40 42 43 42 43 46 47
12 10 10 10 10 11 13 14 15 15 15 16 17 20 22 25 28 31 34 36 38 40 40 39 37 35 34 33 34 34 35 36 38 39 40 41 41 42 42 43 44 44 44 43 42 40 40 40 41 43 46 47 47 48 48 45 40 39 39 38 38 41 44
10 9 9 10 10 11 12 12 13 14 16 17 19 22 25 27 30 33 35 37 38 39 39 37 35 35 33 31 31 32 32 34 36 38 40 41 41 42 42 42 42 43 43 43 42 40 39 38 40 42 44 46 47 48 50 48 44 41 39 35 34 35 38
8 9 10 10 10 10 11 13 15 17 18 19 21 23 25 28 31 33 35 36 37 37 37 35 32 31 30 29 30 30 32 34 37 39 41 42 42 43 44 43 42 42 43 43 41 40 40 39 40 40 41 43 46 48 49 47 44 44 42 38 33 33 35
10 10 9 9 9 10 12 14 15 16 17 19 21 24 26 28 30 31 31 32 32 33 33 32 31 29 28 28 29 30 33 36 38 40 40 41 42 42 43 43 42 41 42 42 40 39 38 39 41 41 40 41 44 48 47 43 42 42 42 41 36 33 34
8 7 7 7 8 9 10 10 12 14 17 20 22 24 25 26 27 28 29 31 32 32 33 33 32 29 28 27 28 30 33 36 37 38 38 39 41 41 42 42 42 41 41 41 40 38 37 37 40 41 42 43 46 47 44 41 40 38 38 41 39 35 34
4 2 3 6 9 10 10 10 14 17 19 21 22 22 23 26 30 33 36 37 37 35 34 34 33 33 32 31 30 31 33 34 35 37 39 40 40 41 41 42 42 41 40 40 40 39 38 38 37 39 43 47 49 47 43 42 42 38 36 40 40 36 35
1 3 5 8 9 9 10 12 15 17 19 21 22 21 24 28 32 36 40 42 41 38 36 34 34 33 34 33 32 32 33 35 35 37 40 40 40 40 41 41 42 41 40 40 40 39 39 39 38 39 42 45 46 45 42 43 43 40 39 41 42 39 34
3 4 5 7 7 7 9 12 15 17 20 23 24 24 26 29 31 35 41 44 42 39 37 35 34 33 34 34 34 34 35 36 36 36 39 40 41 42 42 43 43 41 39 39 40 40 40 40 40 41 42 41 42 41 41 41 41 41 40 40 45 45 37
3 6 8 9 9 8 9 12 16 19 22 24 26 27 28 28 30 36 43 44 43 40 37 36 34 34 34 35 36 36 36 36 36 36 38 40 41 42 44 44 43 41 39 39 39 40 41 41 42 43 42 41 41 39 39 40 40 40 39 38 45 49 42

ECMWFFLT1_850_spd_021.txt.gz
Wind_Speed
6 5 4 4 4 5 5 6 7 7 8 9 10 11 11 10 10 9 7 5 3 1 1 3 5 7 8 9 10 11 11 11 11 10 9 10 10 10 9 9 9 10 10 10 10 12 13 16 18 16 16 18 19 20 22 23 25 27 28 28 27 28 28
7 7 5 3 3 3 3 4 4 5 6 7 8 9 10 10 9 8 8 7 6 5 4 2 0 2 4 7 9 11 13 14 15 14 13 13 12 12 12 11 12 12 12 12 12 13 13 15 20 20 19 19 20 20 19 19 21 23 25 28 29 29 29
9 8 6 4 4 3 2 2 2 3 4 5 6 7 7 7 7 7 7 6 5 5 4 3 3 2 2 4 6 8 10 13 15 16 16 16 16 15 14 14 14 14 15 14 13 14 13 14 18 20 21 21 23 25 23 21 21 22 22 23 25 28 30
9 8 6 5 5 4 4 3 2 2 2 3 4 5 5 5 5 5 5 5 5 4 4 4 4 5 5 5 6 7 8 11 13 15 17 18 19 18 17 16 16 15 15 14 14 15 14 15 18 20 21 21 23 25 24 22 22 24 25 24 23 24 26
10 9 7 6 5 5 4 5 5 3 2 1 2 2 3 3 3 3 3 4 5 6 6 6 6 6 8 8 9 9 8 9 11 13 15 17 18 20 20 19 19 18 17 16 16 17 16 17 18 21 22 21 23 25 24 22 22 23 25 28 28 27 26
12 11 9 7 6 6 6 7 6 4 3 3 2 1 1 1 1 2 4 5 6 7 8 8 8 8 9 9 10 10 9 10 10 11 13 14 16 17 19 20 20 21 21 20 19 18 18 19 20 21 21 20 21 24 24 24 24 24 23 25 27 28 28
15 13 11 9 7 7 7 7 7 6 5 5 4 3 2 2 3 3 5 6 7 8 8 9 9 9 10 10 10 10 10 10 10 11 12 13 14 15 16 18 19 21 22 22 21 21 20 21 21 21 22 23 23 24 24 24 26 27 25 23 23 24 25
17 15 13 10 9 9 9 8 8 8 7 7 7 6 5 4 5 6 6 7 8 9 9 9 10 10 10 11 11 11 11 10 10 10 11 12 12 13 14 16 17 18 20 21 22 22 21 22 22 21 22 24 26 27 27 26 26 26 26 25 23 22 22
19 17 15 13 11 10 10 9 9 9 8 8 9 9 8 7 7 7 8 9 10 10 11 11 11 11 12 12 12 12 12 12 12 11 11 11 12 12 13 14 16 16 17 18 19 20 21 22 22 22 22 22 23 26 28 28 28 27 26 25 24 21 19
20 18 16 14 13 12 11 11 11 10 10 10 11 10 9 9 9 9 10 11 12 12 12 12 12 13 14 14 14 14 13 13 13 12 12 12 12 12 13 14 15 16 16 16 17 18 19 20 22 23 23 22 21 23 25 26 29 29 27 27 26 24 20
21 19 17 15 14 14 13 13 13 12 12 12 12 11 11 11 10 11 12 13 13 13 13 14 14 14 15 16 16 16 16 15 14 13 12 13 13 14 14 14 15 16 16 15 15 16 17 18 20 21 22 22 22 22 23 24 29 31 30 30 30 28 25
21 19 17 16 16 16 15 15 14 14 14 14 14 13 13 12 12 13 13 14 14 14 14 14 15 15 16 17 17 18 18 18 17 15 14 14 14 14 15 16 16 16 15 15 15 15 17 18 19 20 21 22 22 23 22 23 27 30 29 29 30 30 29
22 20 18 17 18 18 17 16 16 16 16 16 16 15 14 14 13 14 15 15 15 15 15 15 15 16 17 17 19 19 20 20 19 18 17 17 16 16 16 16 17 17 16 16 16 15 16 17 19 20 21 22 22 23 22 22 25 29 29 27 27 28 28
24 21 20 19 19 19 19 19 19 18 18 18 17 16 15 15 15 15 16 16 15 15 15 15 15 16 17 18 19 20 21 21 20 20 20 20 19 18 18 17 17 17 18 18 18 17 17 17 18 20 21 22 23 23 23 23 24 28 30 28 25 25 24
26 23 22 21 20 21 21 21 20 20 20 20 19 17 16 16 16 16 16 16 15 15 15 14 15 16 17 19 20 20 21 21 22 22 22 22 22 21 21 20 19 18 19 20 21 20 20 19 19 19 20 22 23 24 23 24 25 26 30 30 27 26 23
28 26 24 23 22 22 23 22 22 21 21 20 19 18 18 17 17 17 16 16 15 15 14 14 14 16 18 19 20 20 20 21 22 23 23 24 24 24 24 23 23 21 21 22 23 23 22 22 21 20 21 21 23 24 24 23 24 25 28 30 28 26 22
30 28 26 25 25 25 24 23 23 22 21 21 20 19 19 18 18 17 16 16 15 14 14 14 15 16 18 19 19 19 19 20 21 23 24 25 26 26 26 26 26 25 25 25 24 24 25 25 24 22 22 22 22 24 25 24 24 24 26 29 30 27 23
32 31 29 28 27 27 26 24 23 22 21 20 20 19 19 18 18 17 16 15 14 14 13 14 16 17 18 19 19 19 20 21 22 24 26 27 28 28 29 29 29 28 27 27 26 26 26 26 26 26 25 24 23 23 24 25 25 25 26 29 31 31 27
35 34 32 31 29 28 27 25 24 22 21 20 19 19 18 18 17 16 15 14 13 13 13 15 17 18 19 19 19 20 21 23 25 26 27 29 30 31 31 32 32 31 30 30 29 28 28 27 28 28 28 28 27 26 25 25 26 26 28 30 32 34 33
37 37 35 33 31 28 26 25 23 21 20 19 19 18 18 17 16 15 13 13 12 13 14 16 18 19 20 20 21 23 24 26 28 29 30 32 33 33 33 33 32 32 32 33 32 31 31 30 30 30 31 31 30 29 29 28 27 27 28 30 32 35 36
39 38 37 35 32 29 26 24 22 21 19 19 18 17 16 15 14 13 12 12 12 13 15 17 19 20 21 22 24 26 27 29 31 32 34 36 36 35 35 33 32 32 33 34 35 35 35 34 34 34 33 33 32 32 32 31 31 30 30 30 32 34 36
42 39 38 36 33 29 25 23 21 20 19 17 16 15 14 14 13 12 12 12 13 15 16 18 20 21 22 24 26 28 30 32 34 36 38 39 38 37 36 35 33 32 33 34 35 36 37 37 37 37 36 35 35 35 36 35 35 34 33 32 33 34 36
44 41 39 37 33 29 25 22 20 18 16 15 14 14 13 12 12 11 11 13 14 16 18 20 21 22 24 26 28 30 32 35 37 39 41 41 40 39 37 36 34 33 33 34 34 35 36 37 38 39 39 38 38 38 38 39 39 38 36 36 35 34 36
43 43 39 36 32 28 24 21 19 16 15 14 14 13 12 11 11 11 13 14 16 18 20 22 23 25 26 28 30 32 35 38 40 41 42 42 41 40 39 38 36 35 34 34 35 36 36 36 37 37 38 39 40 40 40 40 41 41 40 40 39 37 37
40 41 39 35 31 27 24 20 18 16 15 14 13 12 11 11 11 13 15 17 19 20 22 23 25 26 28 30 32 35 38 40 41 41 41 40 40 40 40 39 38 37 37 36 36 37 37 38 38 37 37 37 39 40 40 41 42 42 42 42 42 42 41
35 35 36 34 31 27 24 20 17 16 15 13 12 12 12 12 13 15 17 19 20 21 23 24 26 28 30 33 35 37 39 39 39 39 38 38 39 39 39 40 40 40 39 38 38 38 38 38 39 39 39 39 39 39 40 40 41 42 43 43 44 45 45
29 30 33 32 29 25 21 18 16 15 14 13 13 13 13 14 15 17 18 19 20 22 23 25 27 29 32 34 35 36 37 37 37 37 37 37 38 38 39 39 40 41 40 40 39 38 38 38 38 39 40 40 40 40 39 40 40 41 42 43 46 48 47
27 30 32 29 24 20 17 16 15 15 14 14 14 14 14 15 15 16 17 19 21 23 25 26 28 30 31 32 33 34 35 36 36 36 37 37 37 38 38 38 40 41 41 41 40 39 39 39 39 40 40 41 41 40 40 40 39 39 40 42 45 47 48
29 32 30 25 21 19 17 16 15 14 14 14 14 14 14 14 15 16 17 20 22 24 25 26 28 29 30 30 32 33 34 35 36 36 37 37 37 38 38 38 39 40 41 41 41 40 40 40 40 42 42 42 42 41 41 40 39 39 39 40 42 44 46
32 31 29 26 23 21 19 17 16 15 15 14 13 12 13 13 15 17 19 21 23 25 25 26 27 28 29 30 32 34 35 35 37 37 38 38 38 39 38 38 39 40 42 42 41 41 40 40 41 43 43 44 43 43 43 41 39 39 39 39 40 41 41
33 32 30 27 24 22 19 17 16 14 14 13 11 11 12 13 15 17 19 21 23 24 25 26 27 28 30 32 33 35 36 37 38 39 39 40 40 40 40 40 39 40 42 42 41 41 40 40 41 43 43 44 44 45 44 41 40 40 39 39 39 39 39
33 31 29 26 23 21 18 16 14 13 13 12 11 12 12 14 16 18 19 20 21 22 24 25 27 30 32 33 35 36 37 38 39 40 40 41 41 41 41 41 40 40 41 41 40 39 38 38 41 43 42 43 45 47 45 42 41 41 40 39 39 38 39
32 29 27 24 20 17 15 13 12 11 10 10 9 10 11 13 16 17 17 18 19 20 23 26 29 32 35 36 36 36 37 39 40 41 41 41 42 42 42 42 42 41 41 41 40 39 38 37 39 41 42 43 46 48 45 42 41 40 39 39 38 37 38
28 26 24 21 17 14 11 9 8 7 6 5 5 7 9 12 14 14 15 17 19 21 24 27 31 35 37 37 37 37 37 38 39 40 41 41 41 42 42 42 42 41 40 40 40 40 39 38 37 39 42 44 46 45 43 42 41 39 38 38 37 37 37
23 23 20 16 13 11 9 6 4 1 1 3 5 7 9 11 13 14 15 17 20 22 24 29 33 36 38 38 38 37 37 37 37 37 39 41 40 41 41 41 41 41 40 40 39 39 39 38 37 39 41 42 42 42 41 41 41 39 39 39 38 38 38
22 20 16 13 11 10 8 7 5 6 6 6 6 8 10 12 13 15 17 18 20 22 25 30 34 37 39 39 39 37 37 36 36 35 37 39 40 41 41 42 42 41 41 40 40 39 39 38 38 39 40 40 40 40 40 40 40 39 40 40 40 40 40
20 18 16 14 12 11 10 9 9 8 6 6 8 9 11 13 14 16 18 20 21 24 27 31 35 38 39 39 39 38 37 36 35 35 36 38 40 41 42 43 42 42 41 40 40 39 38 38 38 39 39 39 39 38 38 38 38 38 38 39 41 42 42

ECMWFFLT1_850_spd_024.txt.gz
Wind_Speed
7 6 5 5 5 5 6 8 8 8 9 10 11 11 11 10 9 8 6 4 3 1 1 2 3 4 5 6 7 7 7 7 7 7 8 8 7 7 7 7 8 8 8 7 7 7 8 10 13 13 13 13 14 16 17 17 17 17 17 17 17 18 19
9 8 7 5 5 4 5 6 6 7 7 8 8 9 10 10 9 9 8 7 5 4 4 4 3 3 4 4 6 7 8 8 9 9 9 10 10 10 10 10 10 10 9 9 9 8 9 11 13 15 16 16 17 17 17 18 19 18 18 17 17 17 17
10 9 8 7 6 5 4 4 4 5 5 6 6 7 8 8 7 7 7 6 5 4 4 4 3 3 3 3 4 5 7 7 9 10 10 11 11 12 12 12 13 12 12 12 11 10 10 10 12 13 14 15 17 18 18 18 20 20 21 21 21 20 20
11 9 8 7 6 5 5 4 3 3 3 4 4 5 5 6 5 5 5 5 4 4 4 3 3 3 3 4 5 5 5 6 7 9 10 11 12 12 13 13 14 14 14 14 14 13 13 12 13 14 14 14 16 18 18 17 18 20 20 21 22 23 23
12 10 7 6 6 5 6 6 5 4 3 3 3 3 4 4 4 4 4 3 3 4 4 4 5 5 5 6 7 7 6 6 6 6 8 10 12 13 13 14 14 14 14 15 15 15 15 16 17 19 19 18 19 21 20 18 18 19 19 19 21 22 23
13 12 9 7 7 7 7 7 6 5 5 4 3 3 3 2 2 2 2 2 3 4 5 5 5 5 6 7 8 8 9 8 7 7 7 8 9 10 11 13 14 14 14 15 16 16 17 18 19 21 22 22 22 24 23 21 21 20 19 18 19 20 21
15 14 12 9 9 9 9 8 7 6 6 6 5 5 4 3 3 2 1 1 2 4 5 5 6 6 6 7 7 8 9 9 9 9 8 8 8 9 9 10 11 13 13 14 15 16 17 19 19 20 22 23 24 25 25 23 23 23 22 20 19 19 19
17 16 14 12 11 11 11 10 8 8 8 7 8 8 7 6 5 4 3 3 3 4 5 6 6 7 7 7 8 8 9 9 9 9 9 8 8 9 9 10 10 10 12 13 14 15 16 18 19 20 21 21 22 23 23 23 23 24 24 23 22 20 18
19 18 17 15 14 13 12 12 10 9 9 9 10 10 9 8 7 6 5 5 5 5 6 7 7 7 7 8 8 9 9 10 10 10 10 9 9 9 9 10 11 10 11 11 12 13 14 15 17 18 18 18 19 21 21 22 23 24 24 23 23 22 19
21 20 19 18 16 15 14 13 12 12 11 12 12 12 11 10 9 8 7 7 7 7 8 8 8 8 8 9 10 10 10 10 10 10 10 10 10 10 10 10 11 11 12 11 11 12 12 14 15 15 16 16 17 19 20 21 23 24 23 22 22 22 21
24 22 21 19 18 17 16 16 15 14 14 14 14 14 13 12 11 10 9 9 9 10 10 10 10 10 10 10 11 12 12 12 12 12 12 11 11 11 11 11 11 11 12 12 12 11 12 13 14 15 15 15 16 18 19 22 25 26 24 21 20 21 22
26 24 23 22 20 19 18 18 17 16 15 15 16 16 15 13 12 12 12 12 12 12 12 11 12 11 11 11 12 13 14 14 14 14 14 13 13 13 12 12 12 12 12 12 12 12 12 12 13 15 16 17 17 17 18 21 25 28 25 22 22 21 21
28 27 25 24 23 21 20 20 19 19 18 17 18 18 17 15 15 14 14 14 14 14 13 13 13 12 12 12 13 13 14 15 16 16 16 16 16 16 15 14 14 13 14 14 14 14 14 14 14 14 15 17 18 18 19 20 24 29 30 27 27 26 24
27 28 28 26 25 23 22 21 21 20 20 20 20 20 19 18 17 16 16 17 16 15 15 14 14 13 12 13 13 13 15 15 16 16 17 17 18 18 18 18 17 16 16 16 16 16 16 16 16 16 16 17 18 18 19 21 24 30 34 31 29 29 27
27 27 28 28 27 25 24 23 22 23 22 22 22 21 20 19 18 18 19 19 18 17 16 16 15 14 13 14 14 14 15 16 16 17 17 18 19 19 19 20 19 19 19 20 19 19 19 18 18 18 18 18 19 19 19 21 23 28 34 34 32 30 29
30 29 29 29 29 28 26 25 25 24 24 23 23 22 21 21 20 20 20 20 19 18 18 17 15 14 15 15 15 16 16 16 17 17 17 18 19 20 20 21 21 22 22 23 23 23 23 22 20 20 20 20 20 20 20 20 22 25 30 34 33 32 31
31 32 32 31 31 30 29 28 27 26 26 25 24 23 22 21 21 22 21 21 20 20 18 17 16 15 15 16 16 17 18 18 18 18 18 19 20 21 22 22 23 24 24 25 25 26 26 26 24 23 22 21 21 22 22 21 22 23 27 32 33 33 32
32 32 32 32 32 32 31 31 30 28 27 26 25 24 23 22 22 22 22 21 21 20 18 17 16 15 15 16 17 18 18 19 19 20 21 21 22 23 24 25 26 26 27 27 27 27 27 27 27 27 26 25 24 24 24 24 24 24 26 30 33 33 33
33 32 31 32 33 34 34 33 33 31 29 27 26 25 24 23 22 22 22 22 20 19 18 16 15 14 15 16 18 19 20 21 21 22 23 24 25 26 27 28 29 30 30 30 29 28 28 27 27 28 29 29 29 28 27 27 26 27 28 30 32 34 34
35 34 33 32 34 36 37 35 34 33 31 29 27 26 24 22 22 22 22 21 20 18 16 14 13 14 16 18 19 21 22 23 24 25 25 26 27 29 30 32 33 33 33 32 31 30 29 29 28 28 29 30 31 32 33 32 30 30 30 31 32 34 35
37 37 36 35 34 37 40 39 37 35 33 30 28 25 23 22 22 23 22 20 19 17 15 13 14 15 17 19 21 22 24 25 27 28 29 30 31 32 33 35 35 35 34 33 31 30 29 29 30 30 29 29 31 33 35 35 35 35 34 33 34 35 35
35 37 37 36 36 38 38 37 37 36 32 29 26 23 22 22 22 22 21 20 18 16 14 15 16 17 19 20 22 24 26 27 29 30 32 33 34 35 36 37 36 35 34 33 32 31 29 29 29 31 31 30 31 32 33 35 36 37 37 37 37 36 36
28 29 30 32 35 37 36 34 34 33 30 27 25 22 22 22 22 22 21 19 17 16 16 17 17 18 20 22 24 26 27 29 31 33 35 37 38 38 37 36 35 34 33 33 32 32 31 30 30 31 31 32 32 32 33 34 35 36 37 39 39 38 38
22 22 23 26 29 33 35 34 31 31 31 28 24 22 22 22 22 22 20 18 17 17 17 17 18 20 22 23 25 27 29 31 33 35 37 39 39 38 37 36 35 34 34 33 33 33 33 32 32 32 33 33 33 33 33 34 35 35 36 38 40 39 40
23 22 22 24 27 30 32 31 30 32 31 28 26 25 24 24 23 22 20 18 17 17 17 18 20 22 23 25 27 29 30 33 35 37 38 38 38 38 37 37 36 36 35 35 34 34 34 34 34 34 35 35 35 34 34 33 34 35 35 37 39 40 41
24 24 23 24 27 29 27 28 31 32 30 28 27 27 25 24 22 20 18 17 16 17 18 20 22 23 25 27 28 30 33 34 36 36 36 36 37 37 37 37 38 37 37 36 36 36 36 37 36 37 37 37 38 37 37 36 35 34 35 36 39 41 41
25 25 25 25 27 27 24 26 30 31 29 28 28 26 24 22 20 18 17 16 16 18 20 22 23 25 27 28 30 32 34 34 35 35 35 35 35 36 36 36 37 37 37 37 37 37 37 38 38 39 39 40 40 39 39 39 37 36 36 36 38 40 40
26 27 25 25 26 25 23 26 31 31 28 27 26 24 21 19 18 18 17 17 18 19 21 22 24 25 27 29 31 32 32 33 34 35 35 34 34 34 34 34 36 36 37 36 36 36 36 37 38 40 41 42 42 42 41 41 40 39 38 38 38 39 38
27 27 25 25 26 24 23 28 32 30 28 27 24 21 19 18 18 18 18 18 19 20 21 22 24 25 27 28 29 29 30 32 34 34 34 34 33 33 33 33 34 35 36 36 35 34 34 35 37 39 41 42 42 43 43 42 41 41 40 39 39 39 38
27 27 25 24 25 25 25 30 32 31 30 28 23 20 19 18 19 19 18 19 19 19 20 22 23 24 24 25 26 28 30 32 34 34 34 34 33 33 33 32 33 34 35 34 33 33 32 33 35 37 39 41 42 43 44 43 42 42 41 40 40 39 39
25 25 22 22 24 26 30 34 33 30 28 25 21 20 20 19 18 17 17 17 18 18 19 19 19 20 21 23 26 29 31 33 34 35 35 34 34 34 33 32 32 32 33 32 31 31 30 31 34 36 37 39 42 44 44 42 42 43 42 41 40 39 39
22 22 21 23 26 30 34 35 32 28 24 22 21 20 18 16 15 15 15 16 16 15 15 15 17 19 21 24 27 30 32 34 35 35 36 36 35 35 34 33 31 30 31 30 30 29 29 30 32 35 35 36 40 44 42 40 41 41 41 42 41 40 39
18 19 21 23 28 33 32 26 23 22 21 19 18 16 14 13 12 12 12 12 11 12 13 15 17 19 22 25 28 31 33 34 35 36 36 37 37 37 36 35 33 31 30 31 30 31 31 31 32 35 34 34 36 38 37 36 38 38 39 41 42 41 41
17 19 22 27 33 34 29 21 18 17 16 14 12 11 10 9 8 7 7 8 9 12 14 16 18 20 23 27 29 31 33 34 35 37 38 38 38 39 38 37 36 34 32 33 33 33 34 33 34 35 35 35 36 37 37 37 37 36 38 40 39 40 41
20 24 28 32 31 29 24 19 16 14 13 11 9 7 5 2 2 4 6 8 10 12 14 16 19 21 24 27 30 32 33 35 35 37 39 40 40 40 40 39 38 36 35 35 35 34 35 34 34 36 37 37 39 40 40 40 38 37 38 38 37 38 39
26 30 32 29 25 21 19 15 13 11 9 7 6 5 3 4 5 6 8 9 10 12 14 16 19 22 25 28 30 32 34 36 36 38 39 41 41 41 41 40 39 37 36 36 35 35 34 33 33 35 36 36 37 38 38 39 39 37 37 36 37 40 40
32 31 28 24 21 19 17 15 13 10 8 7 7 7 7 7 8 9 10 10 11 13 14 17 19 22 26 29 31 33 35 37 38 38 39 41 42 42 42 41 39 38 37 36 35 33 32 31 30 31 32 32 32 33 34 36 37 37 37 37 39 42 42

ECMWFFLT1_850_spd_027.txt.gz
Wind_Speed
8 7 7 7 7 7 7 7 7 7 8 9 9 9 9 8 8 7 7 6 5 5 4 3 2 2 2 1 0 1 3 4 5 6 6 5 5 5 5 5 6 7 7 7 7 6 5 6 10 12 12 13 13 14 14 15 16 17 17 17 16 16 15
10 8 7 6 6 6 6 6 6 7 7 8 8 8 8 8 8 8 8 7 6 6 6 5 4 4 3 3 3 2 1 2 3 4 5 6 7 7 7 7 6 6 7 7 7 7 6 6 9 11 13 14 14 15 15 16 17 18 19 19 18 18 18
12 10 9 8 7 6 6 6 6 6 6 7 7 7 7 7 6 6 6 5 5 5 4 4 4 4 4 4 4 5 4 4 4 4 4 5 6 7 7 8 9 9 9 8 8 8 7 7 8 10 12 14 15 17 18 19 19 19 20 20 21 21 21
13 12 11 10 8 7 7 6 6 5 5 5 6 6 6 5 5 5 5 4 4 4 4 3 3 3 4 4 5 6 7 7 6 5 5 5 5 6 7 7 8 9 10 9 9 8 7 7 8 9 10 11 14 17 19 19 19 19 20 21 21 22 22
14 13 12 10 9 8 7 7 7 6 5 5 5 5 5 5 4 4 3 3 3 4 4 4 3 4 4 5 6 7 7 7 7 7 6 6 5 6 6 7 7 8 9 9 9 9 7 7 8 10 10 11 13 16 18 20 20 19 20 19 19 21 23
16 14 13 11 9 8 8 8 7 7 6 5 5 5 4 4 4 3 3 2 1 2 3 3 4 4 5 6 7 7 7 8 7 7 6 6 5 5 5 6 6 7 8 9 10 10 8 7 7 10 11 12 13 15 17 19 20 20 20 19 17 16 17
17 16 14 12 11 10 10 9 8 8 7 6 6 6 5 4 4 4 3 2 1 0 1 2 3 4 5 5 7 7 8 8 8 8 8 8 7 6 5 5 6 6 7 8 10 10 10 9 7 8 11 12 14 15 16 18 18 18 17 18 18 17 16
18 17 15 14 13 12 11 10 9 9 9 8 8 8 7 6 6 5 5 4 3 2 2 3 3 4 4 5 6 7 8 8 8 9 9 9 9 9 8 7 6 7 7 8 8 9 10 10 9 8 9 11 13 14 14 15 16 16 16 17 18 19 17
19 18 17 16 15 14 13 12 11 10 10 10 10 10 9 8 8 7 7 6 5 4 4 4 5 5 5 5 6 6 7 8 8 8 9 9 9 10 10 10 9 8 8 8 9 9 9 11 10 10 10 9 11 13 14 14 14 14 15 15 14 15 15
20 19 18 17 16 16 15 14 13 12 12 11 12 12 11 10 10 9 9 8 7 6 6 6 6 7 7 7 7 7 8 9 9 9 9 9 9 9 10 10 10 9 9 9 9 10 10 11 10 11 11 9 9 12 13 15 15 13 12 13 13 13 13
21 20 19 19 18 18 18 17 16 15 15 14 14 13 13 12 12 11 10 10 9 8 8 7 8 8 8 8 8 9 9 10 10 10 10 9 9 9 9 10 10 9 9 9 8 9 10 11 12 12 12 11 11 12 12 15 18 16 13 14 13 12 13
23 22 22 21 21 21 20 19 18 18 17 17 17 16 15 15 14 12 12 11 11 11 10 9 9 10 10 10 10 10 11 11 12 12 12 12 12 11 11 11 10 10 11 10 10 9 9 10 12 12 14 14 12 13 14 15 20 21 16 14 15 14 15
26 25 25 25 25 24 23 21 21 20 19 19 19 18 18 17 15 14 13 13 13 13 12 11 11 11 11 11 12 12 13 13 13 14 14 15 15 14 14 14 13 13 12 12 12 12 11 11 11 12 14 15 13 12 13 15 21 25 22 21 23 21 20
29 29 28 27 27 27 25 24 23 22 21 21 21 20 20 18 17 15 14 14 14 15 14 13 13 13 12 13 13 14 14 14 14 15 16 16 17 17 16 16 16 16 16 15 15 15 15 15 15 13 13 14 13 12 12 13 19 25 25 23 23 22 22
33 32 31 30 30 28 27 26 25 24 23 23 22 21 20 19 18 17 16 16 16 16 16 15 15 14 14 15 15 15 15 15 15 16 16 17 18 18 18 18 18 18 18 18 18 19 19 19 19 18 16 16 15 14 14 14 16 22 25 23 21 20 21
33 33 32 32 31 30 29 27 26 26 25 24 24 23 22 20 19 18 18 18 18 18 18 17 16 16 16 16 17 17 16 16 16 16 16 17 18 19 19 20 20 20 20 20 21 21 22 22 21 20 20 19 19 18 18 17 17 21 25 25 22 21 20
30 31 30 30 31 30 30 29 28 27 27 26 25 24 23 21 21 20 20 20 20 20 20 19 18 18 18 18 18 18 18 17 17 17 17 17 18 19 20 21 22 22 22 23 23 23 23 23 22 22 22 21 21 22 21 21 21 23 27 29 28 25 22
28 29 29 28 28 29 30 31 31 30 30 29 28 26 24 23 22 22 22 22 21 21 21 20 19 20 20 20 20 20 19 18 18 18 18 19 19 20 21 22 23 24 25 26 26 25 24 24 23 23 23 22 22 23 23 23 23 23 26 30 33 32 29
24 25 26 27 26 27 29 30 31 34 34 33 30 28 25 24 23 23 22 22 22 22 22 21 21 21 21 22 21 21 20 19 19 19 20 21 22 23 24 25 25 26 27 28 28 27 25 24 23 23 23 23 23 23 24 25 25 24 26 29 33 35 34
24 24 23 24 24 25 26 27 30 34 34 32 30 28 26 25 24 24 23 23 23 23 22 22 22 22 23 22 22 21 20 19 20 20 21 22 24 25 26 27 28 29 29 29 28 27 26 25 24 23 23 23 24 24 25 25 26 26 27 30 32 34 35
21 24 24 22 22 22 22 24 27 29 29 29 28 27 26 26 26 25 24 24 24 23 23 23 23 23 23 22 22 21 20 20 21 22 23 24 25 27 28 30 31 30 30 28 27 27 26 25 25 25 24 24 24 25 26 26 26 27 28 30 32 33 35
14 18 19 19 19 19 19 20 22 23 24 25 24 24 25 27 29 28 28 27 26 25 25 25 24 23 22 22 21 21 20 21 22 24 25 27 28 30 31 32 32 31 29 29 28 27 26 25 26 26 25 25 25 26 26 26 26 27 27 28 30 31 33
15 15 15 15 16 17 18 18 19 19 19 20 21 23 26 28 31 31 30 29 28 27 27 25 23 22 22 21 20 20 21 22 24 26 27 29 30 32 33 33 33 32 31 30 30 29 28 27 26 26 26 26 26 26 27 27 26 26 25 25 27 28 29
18 17 17 16 16 17 18 18 17 17 16 17 19 24 27 29 31 31 30 29 28 27 26 24 22 22 22 21 20 21 22 24 26 27 29 31 33 34 34 33 33 33 33 32 32 31 31 29 28 28 27 27 27 27 28 28 28 27 26 24 24 24 25
20 20 19 18 19 19 19 19 17 15 15 16 18 22 27 30 32 31 30 29 27 25 23 22 22 21 21 21 21 22 23 25 27 29 31 32 33 33 33 33 33 34 33 33 32 32 32 32 31 31 30 30 30 30 30 30 30 30 28 28 27 26 25
22 21 20 20 21 21 22 21 18 15 15 16 17 22 28 32 32 32 30 28 25 23 21 20 20 19 19 21 21 23 25 27 29 30 32 32 32 32 32 33 33 34 34 33 33 33 32 32 32 33 33 33 33 33 32 32 32 31 31 31 31 30 28
22 21 21 21 22 23 24 23 19 15 15 16 18 23 30 33 33 31 29 26 23 21 19 18 18 18 19 21 22 24 26 28 30 31 31 30 31 31 32 32 33 34 33 33 32 32 32 32 32 33 33 33 33 31 30 29 30 30 31 32 33 32 31
23 22 21 21 22 24 25 25 21 17 15 16 19 25 31 34 33 30 26 24 21 19 17 16 16 18 20 21 23 25 27 29 29 29 29 29 30 31 32 32 33 33 33 33 32 31 31 31 32 33 33 33 32 30 27 25 25 25 26 27 29 29 27
23 23 22 22 22 24 25 25 21 16 15 16 20 27 32 33 32 28 25 22 19 17 15 15 17 19 21 22 24 25 26 27 27 28 29 30 31 31 32 32 32 32 32 32 31 30 29 29 30 32 32 33 32 30 29 27 28 30 30 30 30 29 28
22 23 22 22 23 24 24 22 17 15 16 19 23 31 34 32 28 25 22 19 17 15 15 16 17 19 20 22 23 24 24 25 27 28 30 31 31 32 32 32 31 30 31 30 30 28 27 28 29 30 31 32 31 30 29 27 29 33 35 36 37 36 36
23 23 22 22 23 24 22 18 15 15 18 22 27 32 32 28 24 20 17 15 14 13 14 15 17 18 19 20 21 22 23 25 27 29 30 31 32 33 32 32 31 30 29 29 28 27 26 27 28 29 29 29 29 29 28 27 27 29 31 34 35 36 37
24 24 23 22 23 24 22 18 16 19 22 27 31 32 28 23 19 16 14 13 12 12 13 14 15 16 16 17 19 21 23 25 28 29 30 32 33 32 30 29 29 29 30 29 27 26 25 26 28 28 28 28 29 30 29 27 26 25 27 28 30 30 30
24 25 24 24 24 23 19 16 18 23 27 29 28 25 22 19 15 13 10 9 10 11 12 12 13 14 15 16 19 21 23 25 28 29 32 34 31 28 26 24 24 27 30 30 29 27 26 26 28 29 29 29 30 30 28 26 25 25 25 26 26 27 27
24 24 25 23 20 18 17 17 21 26 29 27 22 19 17 15 12 9 7 7 8 8 9 10 10 12 14 16 18 21 23 26 28 30 34 32 26 23 25 25 25 29 31 30 29 29 28 28 28 30 31 32 33 33 31 30 30 29 28 28 27 27 26
22 23 22 19 18 19 19 20 23 27 27 23 18 16 13 10 9 8 7 7 7 7 7 9 10 11 14 16 18 21 24 27 28 30 33 31 27 27 31 30 29 31 33 32 31 30 29 28 28 29 31 31 31 30 30 30 29 28 27 28 28 28 26
18 19 19 19 21 22 23 24 25 25 22 19 16 14 10 8 7 5 3 2 3 4 6 8 10 12 14 17 19 22 25 27 28 29 32 33 32 33 33 30 30 33 34 33 31 29 27 26 26 27 27 27 26 25 26 28 30 30 29 29 29 29 28
14 16 18 22 24 26 28 29 26 23 20 17 15 13 12 11 10 8 6 3 2 4 6 8 10 13 15 18 21 23 24 26 27 28 30 32 33 34 33 32 33 34 33 32 30 28 27 26 25 25 24 24 24 24 26 29 31 32 32 32 32 33 34

ECMWFFLT1_850_spd_030.txt.gz
Wind_Speed
9 10 9 9 8 7 7 7 7 7 7 8 7 7 8 8 8 7 7 7 7 7 6 5 5 4 3 2 2 2 3 3 1 1 1 2 1 2 3 4 4 4 5 5 7 8 7 6 8 12 13 12 14 14 13 14 12 11 13 15 14 12 11
10 10 9 8 8 7 6 7 7 7 7 7 6 7 7 7 8 8 8 8 8 8 7 7 7 7 6 6 5 4 3 1 1 3 3 2 2 3 2 3 4 3 4 5 6 6 6 6 7 8 9 11 12 12 13 16 18 19 18 17 18 16 14
12 11 10 9 8 7 6 6 6 6 6 6 5 5 6 6 7 7 7 6 6 6 6 6 7 7 7 7 7 7 7 6 4 2 1 2 4 5 4 3 3 3 4 5 5 5 6 7 8 9 11 12 13 14 15 15 17 19 19 20 22 21 21
14 13 11 10 9 8 7 6 6 6 5 4 4 4 4 4 5 5 6 5 5 4 5 5 6 6 6 6 7 7 8 7 7 6 5 3 2 2 3 3 3 4 5 4 4 4 5 6 7 8 9 11 13 15 17 18 19 19 17 19 22 22 23
14 13 12 11 10 8 7 7 7 7 6 5 4 3 3 3 3 3 4 4 4 4 4 4 5 5 6 6 7 7 8 8 8 7 7 6 5 4 3 2 3 4 5 5 6 6 5 5 6 7 8 9 11 12 13 18 21 21 19 19 19 18 19
15 14 12 11 10 9 8 8 7 7 7 6 5 4 3 2 2 2 2 2 2 3 3 3 4 5 6 6 6 7 7 7 7 7 7 7 6 5 5 5 3 3 4 5 6 6 7 6 6 6 7 8 10 11 11 14 16 17 18 17 15 14 14
17 15 13 11 10 10 9 9 8 8 8 7 6 6 4 3 3 2 2 2 1 1 2 2 3 4 4 5 5 6 6 7 7 7 6 6 6 5 5 5 5 5 6 7 6 5 5 5 4 5 7 8 10 11 11 11 10 10 11 10 9 11 11
18 17 15 13 12 11 10 10 10 9 9 8 8 8 7 6 5 5 4 3 2 2 1 0 1 2 3 3 4 5 5 7 8 8 8 8 7 6 6 5 4 5 6 6 6 6 5 6 6 6 7 8 9 10 9 8 8 8 8 7 8 9 10
20 19 17 16 14 13 12 12 11 11 10 9 10 10 9 8 8 7 6 6 5 4 3 2 2 2 2 2 3 4 5 6 7 9 9 9 10 9 8 7 4 4 6 5 5 6 7 8 8 7 7 7 9 10 9 9 8 7 7 6 6 7 7
22 21 20 18 16 14 14 13 13 13 12 11 12 11 10 9 9 9 8 8 7 7 6 5 4 4 4 4 4 5 5 6 6 7 8 9 10 10 10 9 6 6 7 6 5 7 8 8 8 7 8 8 8 10 11 10 9 7 7 6 6 6 6
22 22 21 20 18 17 16 15 15 15 14 14 13 13 12 11 11 10 10 10 9 9 8 7 7 6 5 6 6 6 6 6 6 7 7 8 9 9 10 9 8 7 9 9 8 8 8 8 8 8 9 8 9 10 11 12 13 10 9 9 8 8 7
23 22 22 22 21 19 18 18 17 16 16 16 16 15 14 13 13 12 12 12 11 11 11 10 9 7 7 7 7 7 8 7 6 7 8 8 9 9 10 10 9 9 11 10 9 9 9 9 8 8 9 9 10 12 12 14 15 13 11 10 11 10 11
25 24 23 23 22 21 20 20 19 18 18 17 17 17 17 16 16 14 14 14 13 13 13 12 11 9 9 9 8 8 9 8 6 6 8 9 9 8 8 10 9 11 13 10 9 11 10 10 11 10 10 10 11 12 13 14 17 17 15 14 15 15 15
27 27 26 25 25 24 23 22 21 21 20 19 19 19 19 19 18 17 16 15 15 15 15 14 13 12 11 11 10 10 11 9 6 6 8 9 10 10 9 9 8 11 14 13 12 11 9 11 13 11 10 10 11 12 13 14 18 19 18 16 15 15 15
29 30 30 29 29 27 26 25 24 23 22 22 21 21 21 21 20 19 18 18 17 17 16 16 15 14 13 14 14 13 13 11 9 9 9 8 8 11 12 11 10 12 15 16 15 13 12 13 13 10 10 11 12 13 13 15 17 19 19 17 16 16 16
25 27 29 30 31 31 30 29 28 28 26 24 24 23 22 22 22 21 20 20 19 19 18 18 17 16 16 16 16 16 15 13 12 12 11 9 8 10 13 13 13 14 16 17 18 17 16 16 15 13 13 13 14 15 15 16 18 20 21 20 18 17 16
21 22 23 24 27 28 29 29 29 30 29 28 27 26 25 25 24 23 23 21 21 21 21 20 19 18 18 17 17 17 16 15 14 14 13 12 11 12 14 14 14 15 17 18 20 20 18 17 17 17 16 15 14 15 16 17 19 20 20 21 20 18 17
19 18 17 17 19 22 23 23 23 25 26 28 29 29 28 26 23 23 23 23 23 23 23 22 21 20 20 20 19 18 18 17 16 16 16 15 15 16 16 17 17 18 19 20 21 21 21 20 20 19 18 17 15 14 16 17 19 20 21 22 21 20 20
15 15 15 15 17 17 17 17 18 18 19 23 27 29 28 27 25 24 24 25 25 25 25 24 23 22 23 23 22 21 21 20 19 19 18 18 18 18 19 19 21 22 22 23 24 24 23 23 22 22 21 20 18 17 18 19 20 20 22 23 23 22 21
12 14 15 17 19 18 18 18 17 16 17 19 24 27 26 26 28 28 28 28 27 27 27 26 24 24 25 25 24 24 23 22 22 21 20 19 19 20 20 20 22 23 25 26 26 26 25 24 24 23 22 22 21 20 20 20 20 20 22 24 23 22 21
9 10 11 15 19 20 21 21 17 15 16 19 22 24 23 24 28 29 29 29 29 28 27 27 26 26 26 26 25 24 24 23 22 22 21 21 21 21 21 22 23 25 26 27 27 26 25 25 25 25 23 23 22 21 20 19 19 19 21 22 23 22 21
10 10 10 12 14 15 16 17 16 15 16 17 19 20 20 23 27 29 29 30 28 26 26 27 27 28 27 26 26 24 24 24 23 22 22 22 22 22 23 24 26 27 28 28 28 27 26 25 25 26 25 24 24 23 22 20 19 19 20 20 21 21 20
13 13 12 12 13 13 12 12 14 15 16 17 17 18 19 21 24 25 26 27 25 25 28 31 31 30 28 27 26 24 24 24 23 22 22 22 22 23 24 26 28 30 31 31 30 29 28 27 26 27 26 25 25 25 24 24 22 21 21 21 22 21 21
15 15 15 14 15 15 14 13 12 13 15 17 18 18 19 20 21 20 20 23 25 29 34 35 33 31 28 26 24 23 23 23 22 22 21 22 23 24 26 28 30 31 32 32 31 31 30 30 29 29 28 28 27 27 27 28 28 26 24 24 23 22 23
16 16 16 15 15 17 17 17 15 13 13 15 17 19 20 20 20 20 22 26 31 34 37 36 32 30 28 25 24 22 22 22 21 20 21 22 24 25 27 29 30 31 31 32 31 31 31 32 32 32 32 31 31 30 29 29 30 30 29 28 27 25 24
16 16 17 17 17 17 18 19 19 17 14 13 14 17 19 18 17 19 24 30 34 35 36 35 33 30 27 25 23 21 21 21 20 20 21 23 25 27 28 29 29 30 31 32 32 32 31 32 32 33 33 33 33 32 32 31 30 30 31 31 32 32 30
17 17 17 18 18 18 18 18 20 18 14 12 15 17 18 17 17 20 26 32 34 36 36 35 32 29 26 24 22 20 19 20 19 21 23 25 27 28 28 28 29 29 30 31 31 31 31 31 31 31 31 31 30 29 30 31 30 30 30 31 33 35 34
18 18 18 18 19 19 19 19 20 18 14 13 15 16 16 17 19 23 29 32 35 36 35 32 29 26 23 21 19 18 19 19 20 23 25 26 27 28 28 29 29 30 30 31 30 31 31 30 30 31 31 31 31 30 29 28 25 25 25 26 27 27 26
18 18 18 19 19 20 20 21 20 18 14 13 14 15 16 18 22 25 29 33 35 35 32 28 25 22 19 18 16 17 19 20 21 24 25 26 27 28 28 29 29 30 30 30 30 31 32 30 30 30 31 31 29 28 27 25 25 27 27 27 27 26 25
17 18 18 19 19 20 20 20 19 16 13 13 15 17 18 19 22 26 30 33 34 32 28 24 21 18 17 16 14 16 17 17 19 22 24 25 26 27 28 29 29 30 30 30 30 30 30 29 28 27 26 26 24 23 22 21 22 26 28 31 33 34 36
17 18 18 18 18 19 19 19 17 14 13 15 18 20 19 19 22 27 31 31 30 26 23 20 17 15 15 15 14 15 15 16 18 21 22 23 24 25 28 30 30 30 29 28 28 28 27 27 26 22 21 22 23 23 22 20 20 21 23 26 30 32 34
21 20 20 19 18 19 18 17 18 17 16 16 19 20 20 21 24 28 29 28 25 21 18 15 13 13 14 14 15 16 16 17 18 19 19 20 22 24 26 27 26 27 27 26 27 27 26 25 24 22 21 22 23 24 23 21 20 20 20 21 22 23 25
24 24 23 20 19 18 19 20 22 20 18 18 19 20 20 24 28 29 26 22 19 16 13 11 11 11 12 14 16 16 16 16 17 18 19 21 23 25 25 22 20 21 23 26 28 28 27 26 26 25 23 22 24 25 23 21 21 22 23 24 23 22 23
25 24 22 19 19 20 22 22 21 20 19 19 20 21 24 27 28 26 21 16 13 11 9 9 9 9 11 13 14 14 14 14 16 19 21 23 24 24 23 20 19 19 23 26 27 27 27 26 27 27 26 26 27 28 27 27 26 26 28 28 26 25 25
23 21 17 17 20 23 23 20 18 17 18 19 22 25 27 26 24 21 17 14 11 8 6 7 8 8 8 9 10 11 13 14 17 20 22 23 24 24 23 22 20 20 23 27 28 27 27 25 26 27 29 30 30 30 30 30 28 26 27 26 24 23 22
20 17 15 17 21 21 20 18 16 16 19 24 27 27 25 22 19 16 13 10 7 5 4 5 5 4 5 7 9 11 13 15 17 19 21 23 24 24 24 22 20 21 25 28 27 26 25 24 25 26 27 27 27 26 26 28 27 26 26 25 24 25 25
16 14 16 18 19 18 18 18 18 21 25 27 27 25 21 17 15 12 10 8 6 5 3 2 1 3 4 7 9 11 13 15 17 18 21 22 22 22 22 22 23 25 27 28 26 25 24 23 22 23 23 22 23 23 24 25 25 25 25 26 27 30 30

ECMWFFLT1_850_spd_033.txt.gz
Wind_Speed
8 8 8 7 7 6 6 6 5 5 5 5 5 5 5 5 5 6 6 6 6 5 5 5 4 4 4 3 3 2 1 1 2 2 4 5 4 3 4 5 5 4 4 4 4 6 6 4 4 4 4 5 8 10 12 13 14 13 13 12 12 12 12
10 9 9 7 7 6 6 6 6 5 5 5 5 6 5 5 6 7 8 8 7 6 5 5 6 7 8 8 8 6 5 4 2 2 2 2 1 1 2 4 5 5 5 4 4 3 5 6 6 6 5 6 7 9 11 12 14 15 15 15 15 15 14
11 10 9 8 7 6 6 6 6 5 4 4 5 6 6 5 6 6 7 7 8 7 6 6 7 8 8 9 9 9 9 8 7 5 3 3 2 1 1 3 4 4 3 4 4 4 4 5 6 8 8 7 8 11 12 13 13 13 15 16 17 19 19
13 12 11 10 8 7 6 6 5 5 4 3 4 5 5 5 5 5 6 6 7 7 7 6 6 7 7 8 8 9 9 9 8 8 6 5 5 3 2 3 3 4 3 2 3 2 3 4 5 6 6 7 9 11 13 15 16 17 17 17 19 21 20
15 14 12 11 10 9 8 7 6 6 5 3 2 3 3 4 5 5 5 5 5 5 5 5 5 5 6 7 7 7 8 8 8 8 7 6 6 5 4 3 4 4 3 2 1 1 2 3 5 6 6 6 8 9 11 14 17 16 15 17 20 22 22
16 15 13 12 11 10 8 8 7 6 6 5 4 3 2 2 3 3 4 3 3 4 3 4 4 4 5 6 6 7 7 8 8 8 8 8 6 6 5 5 5 4 3 2 2 2 3 4 4 5 6 7 8 8 9 12 14 13 11 12 13 15 20
16 15 14 12 12 10 9 9 8 7 7 6 5 5 3 1 2 1 2 1 1 2 2 2 2 3 5 4 5 6 7 8 9 9 9 9 9 8 6 5 5 5 4 5 5 5 5 5 4 5 6 7 8 9 9 9 9 8 8 10 9 9 12
15 16 14 13 13 12 10 10 9 8 8 7 7 7 6 4 4 3 2 1 1 1 1 1 2 3 3 2 3 5 6 7 8 8 9 9 9 9 8 7 6 5 5 5 5 4 4 4 4 6 6 7 9 9 8 7 7 7 6 7 8 7 8
16 16 14 13 14 13 12 11 11 10 9 8 8 9 8 6 6 6 5 4 4 3 3 3 2 2 2 1 2 4 5 6 7 7 8 8 9 9 9 8 6 5 7 6 5 4 5 5 5 6 6 6 8 9 9 8 6 5 5 5 6 6 6
17 16 15 14 14 14 14 13 12 11 11 10 10 11 10 7 8 8 7 8 7 6 7 6 4 5 4 2 3 4 4 5 6 6 6 7 8 8 9 9 6 5 8 7 5 6 6 6 5 5 6 6 6 8 9 10 8 7 7 6 6 6 5
20 17 15 15 15 15 15 14 13 13 13 12 12 13 12 9 10 10 9 10 10 8 9 8 7 8 5 4 5 5 4 5 5 5 5 6 7 8 8 8 6 5 8 8 7 8 8 8 6 4 5 6 7 7 8 10 12 10 9 9 8 8 8
22 20 17 16 15 15 15 15 14 14 15 14 14 15 14 12 12 12 11 12 12 11 11 10 10 10 7 7 7 6 6 5 3 4 5 5 6 7 7 8 6 5 8 9 8 9 9 8 7 6 6 6 7 8 9 11 14 13 11 11 11 11 11
21 21 19 18 17 17 17 16 16 16 16 16 16 16 16 14 14 14 13 14 14 14 14 13 13 12 10 10 8 7 8 7 3 6 6 5 6 5 5 7 6 6 9 8 6 9 10 9 10 10 8 7 7 8 9 10 14 16 15 14 15 15 14
20 20 20 19 19 18 18 18 18 17 17 17 17 17 17 16 16 16 15 15 15 16 16 16 15 14 12 11 10 9 11 9 5 7 8 8 7 5 3 3 4 8 11 9 9 9 7 8 11 10 8 8 8 8 9 11 14 17 16 15 15 16 15
17 19 19 19 20 19 19 18 18 18 17 17 17 18 18 18 18 18 17 17 17 16 17 17 17 16 14 13 13 12 13 12 7 9 10 9 7 8 7 3 3 7 10 11 12 10 8 9 10 8 8 9 10 10 10 12 14 16 17 16 15 16 16
16 18 19 19 19 20 20 20 20 19 18 18 18 18 19 18 19 19 20 19 19 18 18 18 18 19 16 15 16 17 16 14 10 12 13 9 7 9 10 7 6 9 11 11 12 12 11 11 10 9 10 11 12 13 13 13 15 16 18 18 16 16 16
18 20 20 20 20 20 21 22 21 21 20 20 19 19 19 19 20 21 21 21 20 20 20 19 19 20 18 17 17 18 17 16 14 14 13 9 9 10 10 10 8 8 10 11 12 12 10 10 12 13 13 12 12 13 13 13 14 16 17 19 18 17 17
19 21 20 19 19 19 21 22 20 19 20 21 21 21 21 22 22 23 23 22 21 21 20 19 20 20 19 18 18 18 17 16 15 14 12 11 12 12 12 12 10 10 11 12 13 12 12 14 16 16 16 14 12 12 14 14 15 16 18 20 21 20 19
15 19 20 19 18 18 20 21 19 18 19 19 21 21 22 23 24 24 24 23 22 21 20 19 19 19 18 18 19 18 18 16 15 14 13 14 15 15 14 14 13 13 14 14 14 15 16 18 20 19 19 18 16 16 17 17 17 17 18 20 21 21 20
9 13 15 16 16 17 20 20 20 19 18 18 19 20 21 23 24 24 23 22 22 21 21 21 20 19 19 18 18 18 18 18 17 16 16 15 14 15 15 15 15 16 16 16 16 16 17 19 21 21 21 20 20 19 19 19 18 18 18 19 20 20 20
7 9 11 13 15 16 18 20 21 22 21 20 19 19 20 22 22 22 23 23 23 23 22 22 22 22 21 19 19 18 18 19 19 18 18 17 16 17 18 17 17 18 18 18 18 18 20 21 21 21 21 21 21 21 21 21 20 19 19 19 19 19 19
7 8 9 11 12 13 13 14 17 20 21 20 20 20 20 23 24 24 24 23 23 25 24 23 23 24 23 21 21 20 18 18 18 17 17 17 17 18 19 18 20 20 21 21 22 22 23 23 23 23 22 22 22 22 22 22 21 20 19 19 20 19 19
7 8 8 9 11 12 12 12 13 15 17 17 19 20 21 25 28 28 25 23 23 25 26 26 26 25 23 23 24 21 19 17 17 17 17 17 17 18 19 20 21 23 24 25 25 25 26 26 26 26 25 23 23 23 23 23 23 23 21 21 20 20 20
7 8 9 10 11 11 12 12 13 15 15 15 18 20 21 25 27 27 26 25 25 27 28 29 30 29 28 29 27 21 19 20 19 20 20 19 18 18 19 20 21 23 25 26 26 27 28 28 28 28 28 27 25 24 24 25 26 26 26 26 25 23 22
8 9 9 10 11 11 12 12 13 15 16 16 17 18 20 22 22 21 23 24 26 29 31 32 33 32 33 35 32 26 23 23 22 21 20 20 20 19 19 20 21 23 25 27 27 28 30 30 31 30 30 30 29 28 27 27 27 27 28 29 29 28 26
9 9 10 10 11 11 12 13 13 14 15 16 16 16 16 17 16 17 19 21 23 28 33 35 35 34 34 35 35 31 27 25 23 21 20 21 21 21 21 22 23 24 24 26 27 28 28 28 29 29 30 31 31 30 30 29 29 28 28 29 30 31 30
10 10 10 11 11 12 13 13 14 14 15 16 17 16 16 15 16 17 18 19 23 28 31 34 35 35 34 34 35 32 29 27 25 23 22 22 22 23 24 24 24 24 24 25 25 26 25 25 26 27 29 30 30 29 29 30 30 31 31 31 32 33 31
11 11 11 11 12 12 13 13 14 14 14 15 16 17 17 17 16 16 17 22 27 29 30 32 34 35 35 35 34 31 29 29 26 23 22 22 23 24 24 24 24 25 25 25 25 26 26 26 27 29 29 30 30 29 29 28 28 29 29 28 28 28 24
12 12 12 12 12 13 13 13 14 14 15 15 15 16 17 16 15 15 19 26 31 31 30 31 33 35 35 34 31 29 28 26 23 21 22 22 23 23 23 23 24 24 24 24 26 28 28 27 28 30 30 30 29 28 28 27 27 28 28 27 27 26 25
13 13 13 13 13 13 13 13 14 13 14 15 14 15 17 14 12 17 24 29 31 31 30 29 31 32 32 31 28 26 24 21 19 18 19 19 19 18 19 21 23 24 25 25 26 28 28 27 28 28 28 28 28 27 28 28 28 28 28 29 30 30 32
13 13 13 13 13 13 13 13 13 13 14 14 13 16 18 16 16 22 28 29 29 29 28 28 29 30 29 27 25 21 18 16 14 14 14 14 14 14 15 20 23 25 25 24 24 27 28 28 28 27 27 28 28 27 27 27 27 26 25 25 26 27 29
14 14 15 15 14 14 14 14 13 13 14 15 15 18 22 22 22 25 27 26 26 27 27 28 29 28 26 23 19 17 15 13 11 10 10 11 12 13 15 18 21 23 22 21 23 27 29 29 29 28 29 28 27 26 24 23 22 22 22 24 24 24 25
15 15 15 15 15 15 14 14 15 14 14 16 19 22 24 23 23 25 25 23 23 25 26 26 25 23 20 17 15 13 12 11 10 10 11 13 14 16 16 15 17 19 20 21 25 28 30 31 30 30 31 29 25 23 22 22 23 25 27 29 29 30 30
16 16 16 16 16 16 15 15 15 14 15 16 19 23 24 22 21 23 23 22 23 23 22 21 19 16 14 12 11 11 11 12 12 13 15 16 16 15 14 12 14 19 22 24 27 29 30 30 30 31 32 31 28 27 27 30 31 30 29 31 31 32 31
17 17 17 17 17 17 16 17 16 16 18 19 20 22 22 21 21 23 23 23 22 20 17 14 12 10 9 8 8 9 10 11 12 12 14 15 14 14 14 13 15 21 24 25 27 29 29 30 31 32 32 31 30 30 31 33 32 29 28 29 29 29 28
18 18 18 18 18 17 16 18 19 19 21 22 22 21 21 21 23 25 24 22 19 15 11 9 7 6 6 6 7 7 8 8 9 10 12 13 13 14 15 14 16 20 23 23 25 26 28 28 29 28 27 27 27 26 27 28 27 25 24 25 26 26 26
18 19 18 18 17 17 16 19 21 22 22 22 20 20 22 24 25 24 22 18 13 10 8 6 4 4 4 4 4 4 5 6 7 8 10 12 13 14 15 16 18 20 22 23 24 25 24 23 22 20 20 20 20 21 22 22 21 19 20 21 23 25 25

ECMWFFLT1_850_spd_036.txt.gz
Wind_Speed
10 9 8 6 5 5 6 7 6 7 7 7 8 8 8 9 11 12 14 13 11 7 5 6 6 5 6 5 5 7 6 5 8 9 7 8 7 8 9 8 8 7 3 1 2 4 4 4 5 3 3 5 6 7 6 6 7 10 12 13 13 15 16
10 9 8 6 6 6 7 7 5 6 7 7 8 8 9 11 12 12 13 15 13 9 7 9 11 10 10 11 8 7 6 6 9 8 6 6 6 8 9 8 8 8 6 4 4 3 1 4 5 5 5 5 6 5 6 5 5 6 8 10 13 15 15
12 10 8 7 7 6 6 7 5 6 7 7 8 9 9 10 11 11 11 12 12 10 9 10 11 10 10 11 10 10 9 9 8 6 5 6 6 6 7 7 6 5 5 5 5 5 3 2 3 4 6 7 7 8 7 6 6 7 7 7 9 11 12
13 12 10 8 8 7 6 6 5 5 5 6 7 8 8 9 9 10 11 10 10 10 10 9 9 9 10 10 9 9 9 9 9 8 7 7 7 5 7 8 7 6 6 5 3 2 1 0 1 2 3 6 8 8 9 10 10 10 11 12 12 11 12
14 14 11 9 8 7 6 6 5 3 2 4 6 6 7 8 8 8 9 9 9 9 9 9 8 8 9 9 9 9 9 9 8 8 7 7 8 7 7 8 7 5 6 5 4 2 2 2 2 2 2 5 6 6 7 10 9 7 8 11 12 13 14
15 14 11 9 9 7 6 7 6 3 2 1 2 4 5 5 6 7 7 8 7 7 8 8 7 8 9 8 8 9 9 9 8 8 8 7 6 7 7 7 6 4 4 4 4 3 3 0 1 1 2 3 5 6 5 7 8 7 6 7 8 8 9
17 15 12 10 9 8 7 7 7 5 4 3 1 1 2 3 4 5 5 6 6 6 6 6 6 8 7 4 6 8 8 8 8 8 8 8 7 6 6 6 5 4 4 4 6 5 2 1 1 2 3 3 4 3 3 5 7 9 10 10 9 10 9
18 17 13 11 11 9 8 8 8 8 7 6 5 3 0 1 1 2 3 3 3 3 4 4 4 5 5 3 5 6 6 7 7 7 8 8 8 7 6 6 5 6 5 4 4 3 0 2 2 3 4 4 3 3 3 2 1 3 7 8 9 12 13
18 18 15 13 12 11 11 10 9 10 9 8 8 6 2 1 2 2 1 1 1 1 2 2 2 2 2 2 4 5 5 6 6 7 8 8 8 8 7 6 5 6 6 4 5 4 3 3 3 3 5 6 7 7 5 2 1 1 3 4 4 7 10
16 17 16 13 12 12 13 11 10 10 10 10 11 10 6 4 4 4 3 3 2 2 2 1 2 2 2 3 3 3 3 4 5 5 6 7 7 7 7 7 7 8 7 6 6 6 6 5 4 4 4 5 7 8 8 6 4 3 1 1 1 1 1
15 15 14 13 12 12 13 13 12 11 11 12 13 12 10 8 7 6 6 6 4 5 4 4 5 4 3 4 3 3 3 4 4 3 4 5 6 6 6 6 7 8 7 7 7 8 7 7 7 6 4 2 3 5 7 9 9 6 5 6 6 6 5
16 14 13 13 12 12 12 13 13 12 12 13 13 14 14 11 10 9 8 8 8 7 7 7 7 6 5 5 5 5 4 4 4 4 4 3 2 3 4 4 6 7 7 7 8 8 8 7 9 8 5 3 2 3 5 8 11 10 9 9 9 10 10
15 14 14 13 13 13 12 12 12 11 12 13 13 15 16 15 14 13 12 12 11 11 10 9 9 9 8 8 7 7 7 5 4 5 6 4 3 3 3 3 4 5 6 7 7 8 9 9 10 10 9 8 7 7 7 8 12 14 13 13 13 13 13
14 15 15 14 13 14 13 12 12 12 12 13 14 15 16 17 17 16 15 14 14 14 13 12 12 11 10 10 9 8 9 8 5 6 8 7 6 6 4 3 4 4 5 6 6 7 7 7 9 9 9 9 8 7 7 8 12 16 16 15 16 17 17
15 15 15 15 14 14 14 14 14 14 14 15 16 16 17 18 18 18 17 17 15 15 15 14 14 13 12 11 11 10 10 11 8 6 9 10 8 8 5 2 3 6 6 6 6 6 5 6 7 6 5 8 8 8 9 10 12 16 18 17 17 18 17
15 15 16 17 16 15 16 16 16 16 16 18 18 18 18 19 20 20 19 19 17 16 15 14 14 14 13 12 12 12 12 13 11 8 11 12 9 9 9 6 5 8 9 8 8 8 8 9 9 8 8 9 10 10 11 12 13 15 18 20 19 19 19
16 17 20 21 18 17 18 18 18 18 19 20 20 20 19 20 22 22 21 21 19 17 16 15 14 15 14 12 12 13 13 15 13 10 12 13 9 9 12 11 8 8 9 9 10 10 9 9 10 11 12 12 11 11 11 12 14 15 18 21 21 21 20
17 19 22 23 20 20 22 23 22 22 23 24 25 25 23 23 24 25 24 23 21 19 18 17 15 16 16 13 11 12 13 14 13 10 13 14 10 11 14 13 9 9 9 10 11 10 10 10 12 13 14 14 13 12 12 13 15 16 18 21 22 22 22
13 16 19 20 20 21 24 25 23 22 23 26 29 31 29 27 27 27 25 24 23 21 20 18 17 17 17 16 14 13 14 14 13 11 12 13 11 14 16 14 12 12 12 12 12 12 13 13 14 15 16 16 15 15 16 16 17 18 18 20 22 23 23
6 9 13 16 18 19 22 22 20 19 22 25 29 31 29 27 27 26 26 25 24 23 22 21 20 19 18 18 17 16 15 16 15 13 12 13 13 15 16 15 14 13 13 13 14 14 15 15 16 17 17 17 17 17 18 19 19 19 19 20 21 21 22
3 5 8 11 13 15 17 18 18 19 21 24 27 28 27 26 26 26 26 26 26 26 26 25 24 21 19 19 20 20 20 20 18 15 15 15 15 15 16 15 14 14 14 15 15 15 16 17 18 19 18 18 18 19 20 20 20 20 20 20 20 20 20
3 4 5 6 9 11 12 13 14 15 17 20 24 26 25 24 25 25 25 26 28 29 28 28 26 23 22 21 20 22 23 23 22 19 17 16 16 16 17 17 16 16 16 17 16 16 18 19 20 21 20 20 21 22 22 22 22 22 21 21 22 21 21
4 4 5 5 7 9 10 11 12 12 13 16 19 23 23 22 22 24 25 26 27 27 28 28 26 25 25 25 24 24 23 23 23 22 19 17 16 17 18 18 16 17 18 19 19 20 20 21 22 23 23 23 23 23 23 23 23 23 23 24 24 23 23
4 5 6 6 8 9 9 11 13 13 14 15 16 17 19 19 19 21 23 23 23 24 27 27 26 26 28 28 27 26 25 24 25 23 19 17 17 17 15 15 15 16 18 20 21 22 23 23 24 25 26 26 25 25 25 25 24 24 24 25 25 25 26
5 6 7 7 8 9 10 11 13 13 14 16 18 17 17 18 18 18 19 19 19 22 25 26 27 28 29 29 27 26 26 26 26 23 20 19 19 17 15 16 16 18 20 22 23 23 24 25 26 26 27 27 27 27 27 27 27 26 26 26 27 27 27
6 7 7 8 8 9 10 11 12 13 14 15 17 18 18 17 17 18 18 17 18 20 21 22 25 26 27 28 28 27 27 28 28 26 24 21 20 19 19 20 20 21 22 23 24 24 24 24 24 24 26 26 27 28 28 28 28 28 28 28 29 30 28
7 7 8 8 9 9 10 11 12 13 14 15 15 17 19 19 18 18 17 17 19 19 18 18 21 22 24 27 28 28 29 29 29 29 26 23 22 21 22 23 22 23 23 24 24 24 23 22 22 24 25 27 28 28 29 29 29 28 28 28 29 31 29
8 8 9 9 10 11 11 11 12 13 13 14 14 16 18 19 19 17 16 17 19 19 18 20 21 21 23 24 25 27 29 30 30 29 28 25 24 24 24 24 23 24 25 25 26 25 24 24 24 25 27 27 28 28 28 28 27 27 27 27 29 30 30
9 9 10 10 11 11 11 12 12 13 13 14 14 15 17 18 18 18 19 20 20 19 20 22 22 22 22 21 22 24 27 29 30 29 27 25 24 25 25 23 23 25 25 25 25 25 25 26 27 27 27 28 29 29 29 28 26 25 26 27 28 29 30
10 10 10 11 12 12 12 13 13 13 13 14 14 15 16 17 19 22 23 21 20 20 22 22 23 22 20 20 21 23 26 28 28 27 26 24 23 23 21 21 21 23 23 23 25 26 27 28 28 28 29 30 30 31 30 29 27 25 25 27 28 29 30
10 11 11 12 12 12 13 13 13 13 14 13 14 16 18 19 22 24 24 22 21 21 22 22 23 22 21 21 23 24 26 26 24 23 22 21 20 18 16 17 18 19 21 23 25 26 27 28 29 29 30 32 32 32 32 31 29 28 28 29 30 31 32
11 12 13 13 14 15 15 15 14 14 14 14 16 19 20 21 23 25 24 22 20 19 19 21 21 22 22 23 23 24 24 23 22 20 19 17 16 15 16 17 19 20 22 24 25 26 27 28 29 31 32 33 35 35 34 33 32 33 34 35 34 34 35
12 12 13 13 14 14 15 15 15 14 15 17 20 23 22 21 22 23 22 21 19 17 18 18 19 20 21 22 22 21 21 20 19 18 17 16 17 18 18 19 20 21 22 23 24 26 28 29 31 32 33 35 36 37 36 36 37 38 39 39 39 38 39
12 13 14 14 15 16 16 16 15 14 16 21 23 24 24 22 20 20 20 19 18 17 18 19 19 20 20 20 20 19 19 18 17 16 16 16 17 17 15 15 18 20 20 23 26 28 30 31 32 33 35 36 37 37 37 38 37 37 37 37 38 37 37
14 16 16 16 17 17 17 16 15 15 19 23 23 22 22 22 20 20 20 19 18 18 20 20 20 19 18 18 17 16 15 14 14 14 14 14 15 15 13 13 17 20 22 25 27 28 29 31 32 34 34 34 33 32 31 31 31 31 31 32 31 30 29
15 16 16 15 16 16 15 15 17 18 20 23 22 20 20 19 19 20 21 20 19 19 19 19 17 15 15 13 12 12 11 11 11 12 13 13 13 14 13 14 17 21 23 24 25 26 27 28 29 29 27 25 24 23 23 24 24 25 27 27 26 26 25
14 14 14 14 15 15 15 17 19 20 21 23 24 22 20 19 18 20 21 20 18 17 15 14 13 12 11 10 9 9 9 9 9 10 11 12 12 12 13 14 16 19 20 22 23 23 23 22 21 21 20 20 20 20 21 21 21 22 24 24 24 24 24

ECMWFFLT1_850_spd_039.txt.gz
Wind_Speed
17 16 15 13 12 12 13 12 11 11 11 11 11 10 11 14 12 9 10 9 9 8 6 4 3 5 7 7 5 4 5 7 8 9 10 11 11 11 12 10 8 7 5 5 5 6 6 4 2 1 1 1 4 8 10 11 11 12 13 14 14 12 11
16 15 16 14 13 13 14 13 12 12 12 12 13 13 13 13 13 12 10 10 10 10 9 9 9 8 7 7 6 6 6 6 6 6 6 8 9 9 10 10 9 9 8 7 6 5 5 5 3 2 1 2 1 1 4 7 7 8 10 11 13 14 14
17 17 17 16 15 14 15 14 13 12 12 13 14 14 14 14 14 13 10 9 10 11 11 11 11 11 10 9 7 7 7 7 6 5 5 7 8 7 6 6 7 8 7 7 6 6 5 4 4 4 3 3 3 3 1 3 5 6 7 8 9 12 14
18 18 18 17 16 15 15 15 14 13 12 12 13 13 13 14 14 12 10 9 10 11 11 11 11 10 10 10 9 8 7 6 5 4 6 9 9 7 5 5 6 7 7 6 5 4 3 3 3 3 3 3 3 2 2 3 3 3 5 6 7 9 11
17 18 18 17 17 16 15 16 15 14 12 12 12 12 12 12 12 11 10 10 10 10 10 11 11 10 9 9 8 8 8 7 6 6 5 7 9 8 8 7 6 7 6 5 4 4 4 4 5 4 4 4 4 4 3 2 3 3 2 2 1 2 5
15 17 16 15 16 14 14 14 15 14 13 12 12 12 12 11 10 11 10 10 9 9 9 9 9 10 10 9 8 8 7 7 7 6 6 6 6 6 6 5 5 6 7 5 5 4 4 4 4 3 3 4 3 2 3 2 3 4 4 5 7 9 7
15 16 16 14 14 13 11 12 13 13 13 12 11 11 10 10 10 10 10 10 9 9 8 7 7 10 10 9 9 8 8 8 7 6 6 5 4 4 4 4 4 4 5 5 4 2 1 1 1 1 1 2 2 1 4 4 3 2 3 5 4 5 6
14 15 14 13 12 12 10 9 9 10 10 10 10 10 9 9 8 8 8 8 8 8 7 6 6 8 8 8 8 8 8 8 8 7 7 6 6 5 4 4 4 4 3 2 0 2 3 2 1 2 1 1 1 1 3 5 4 4 4 5 5 3 1
15 14 14 13 11 10 9 9 7 5 5 6 7 7 7 7 6 6 6 5 5 5 5 5 4 5 6 6 6 7 7 7 7 8 8 7 7 7 7 7 6 7 6 5 4 4 4 4 4 3 3 4 3 3 2 4 4 4 5 5 5 4 2
16 14 13 12 11 10 9 8 8 7 5 3 2 3 3 3 3 3 3 3 3 3 3 2 2 3 4 5 5 6 6 6 7 7 7 7 7 7 8 8 8 8 7 6 6 6 6 6 5 5 4 5 5 5 4 2 1 3 2 2 3 4 4
17 15 13 11 10 11 10 8 9 9 7 6 4 2 1 1 1 1 1 1 1 1 0 0 1 1 2 3 3 3 4 4 5 5 5 5 6 6 6 7 7 8 7 6 7 7 7 7 7 7 5 5 6 6 6 6 4 1 2 2 2 4 6
16 16 14 11 9 10 11 10 9 8 8 8 7 6 5 4 4 4 4 4 4 3 2 3 3 2 3 3 3 2 2 2 1 3 3 4 4 4 4 5 6 7 6 6 7 7 6 7 8 7 7 7 7 7 7 7 7 5 4 5 4 5 8
13 13 14 12 10 9 10 10 10 9 8 8 9 8 8 7 6 6 7 6 6 6 6 6 6 5 5 5 5 5 4 3 3 2 1 2 2 1 2 2 3 5 5 5 6 6 6 7 7 6 7 8 7 7 8 8 10 9 8 8 8 8 8
13 13 14 13 10 9 10 9 9 8 7 7 8 8 9 9 9 9 9 8 8 8 8 8 8 8 7 7 7 7 6 5 6 5 4 3 2 1 1 1 1 2 2 3 4 4 5 6 6 6 7 8 7 7 7 8 11 12 10 9 10 11 10
16 16 16 14 12 12 12 12 11 10 8 8 8 9 10 10 11 11 11 11 9 10 11 10 10 10 9 9 9 9 9 7 7 7 7 7 6 5 4 4 3 1 1 2 2 3 4 4 4 5 6 6 6 6 7 8 10 13 14 12 12 13 14
18 18 18 16 14 15 16 16 15 13 12 11 10 9 10 11 12 13 13 12 11 12 12 12 12 12 12 11 10 10 11 10 9 9 9 9 9 8 6 6 7 6 4 4 4 3 4 4 5 6 6 7 8 8 9 9 11 14 17 17 16 17 18
17 18 18 15 16 19 20 19 18 15 14 14 13 12 12 13 13 14 14 13 14 14 14 14 14 14 14 14 12 11 11 12 11 11 11 11 12 12 10 8 9 9 7 7 6 6 7 7 7 8 8 9 10 10 10 11 12 14 17 19 19 19 19
17 20 21 18 18 22 23 22 21 19 17 17 16 15 15 16 16 15 15 15 16 16 15 15 16 16 17 17 16 14 12 12 12 12 12 12 13 14 12 10 11 11 10 9 9 9 9 9 9 9 9 11 12 12 13 13 13 15 17 20 21 21 20
18 21 23 20 20 22 24 24 24 22 20 20 18 16 16 19 20 18 18 20 19 18 18 17 17 19 20 18 18 18 16 14 14 14 13 13 13 15 14 13 13 13 11 10 10 11 11 12 11 11 12 14 15 15 16 16 17 18 19 21 22 23 23
15 18 19 18 18 20 21 23 22 21 20 19 18 17 16 19 21 20 22 24 24 23 22 21 22 23 23 20 19 21 21 19 17 16 16 14 13 14 16 16 16 14 13 12 12 12 13 13 13 14 15 16 17 18 18 19 20 21 21 22 23 23 24
5 7 9 10 12 14 15 16 16 17 17 16 16 16 17 18 19 20 22 23 24 24 25 26 26 26 25 22 21 21 22 23 22 19 18 17 15 15 17 18 17 16 14 13 12 13 14 14 15 16 17 17 18 19 19 20 21 22 23 23 24 24 24
0 0 1 3 4 6 7 8 9 11 12 11 12 13 15 15 16 18 20 21 22 23 25 27 27 27 27 26 23 22 22 24 26 24 22 20 19 18 18 18 16 15 14 13 13 14 14 15 16 17 18 19 20 20 21 21 21 22 22 23 24 24 24
2 3 2 1 2 3 3 4 5 6 7 6 7 9 10 11 11 13 15 17 19 20 23 26 26 27 28 28 27 26 24 23 26 29 26 23 22 21 20 19 16 13 13 13 13 14 15 16 17 19 19 20 21 22 22 23 22 22 22 23 24 25 26
2 2 2 2 3 4 5 6 7 8 8 8 8 9 9 9 9 11 13 13 15 17 19 22 24 25 27 29 29 28 27 23 23 27 28 25 24 23 22 19 16 14 14 14 14 14 16 18 20 21 21 22 22 23 23 24 25 25 25 26 26 26 27
5 5 4 4 4 5 6 7 8 8 8 8 8 10 11 12 12 12 12 13 13 14 14 16 18 21 24 27 28 28 28 25 23 25 26 25 25 24 22 20 18 18 17 15 15 16 18 21 23 24 24 24 24 23 24 25 26 27 27 28 29 29 28
6 6 6 6 6 7 8 9 9 9 9 9 9 10 11 12 14 14 14 14 14 14 14 15 16 18 20 23 26 28 29 26 23 24 25 25 25 24 23 23 21 20 17 15 16 17 19 23 25 26 25 25 24 24 24 25 26 27 28 28 29 30 28
5 6 7 8 8 9 9 10 11 10 11 11 11 10 10 10 12 14 14 14 14 15 16 16 16 17 19 21 24 27 28 24 21 23 24 24 25 24 24 23 21 18 16 15 17 18 19 23 26 25 24 24 24 24 25 25 25 25 26 27 27 28 27
4 5 5 6 7 8 9 10 11 11 11 12 12 12 10 10 11 13 14 15 16 16 16 16 16 17 18 20 20 21 22 21 21 23 24 24 24 23 22 21 19 17 16 17 18 19 22 26 27 25 24 24 25 25 25 24 25 25 25 25 25 26 26
5 6 6 7 7 8 9 9 10 11 12 13 13 13 12 11 12 13 15 16 18 18 17 17 18 18 19 19 18 17 17 17 19 22 23 24 24 23 22 20 19 18 18 18 20 23 27 28 27 25 25 26 26 27 26 26 26 26 26 26 27 27 28
6 7 8 8 9 9 9 9 9 10 11 13 14 14 13 13 14 16 17 18 18 18 19 19 20 20 19 19 18 17 15 14 15 17 20 23 24 22 19 19 18 17 18 19 22 25 27 26 25 26 27 27 28 28 28 28 28 28 29 29 29 29 29
10 10 10 9 9 10 10 10 10 11 12 13 14 15 15 15 16 17 18 19 19 18 19 19 19 19 18 17 17 16 16 15 16 17 19 21 21 19 18 18 18 18 18 20 22 24 24 25 25 26 27 28 29 29 30 30 32 32 33 33 32 31 31
13 13 14 14 14 14 15 16 16 16 16 17 17 17 18 18 19 19 19 20 20 19 18 18 17 15 15 15 15 16 17 18 18 19 20 20 19 18 19 19 18 19 19 20 22 23 24 24 24 25 27 28 30 31 32 34 35 35 34 33 32 31 31
13 13 14 14 15 16 15 15 15 15 16 18 19 19 20 20 20 20 19 19 19 18 17 16 14 13 13 14 15 17 19 19 19 20 20 19 17 17 18 19 19 20 21 21 22 23 23 24 25 26 28 29 31 33 33 33 32 32 31 30 28 28 28
12 13 13 14 16 16 16 16 16 17 18 19 19 20 21 21 20 19 19 18 17 16 15 14 13 13 13 14 15 17 18 18 18 18 17 16 16 16 18 20 20 21 22 22 23 23 24 25 26 28 29 30 31 30 30 28 27 26 25 25 25 25 25
15 16 16 18 18 19 19 18 17 18 21 22 20 20 21 21 21 20 19 17 16 14 13 13 13 13 13 14 15 16 16 16 16 16 15 15 15 16 18 20 20 21 21 22 22 23 24 25 27 27 27 26 25 24 23 22 22 22 22 22 22 23 23
16 17 18 19 19 17 16 14 13 15 18 20 20 20 21 21 21 20 19 17 15 13 12 13 14 14 15 15 15 14 14 14 14 14 14 14 15 16 17 18 19 19 19 19 19 21 22 23 23 22 21 20 20 20 19 19 19 20 21 21 22 23 24
15 16 16 15 14 13 14 14 15 15 16 17 19 21 22 23 22 21 20 17 14 12 13 15 15 14 13 13 13 12 12 12 13 14 14 15 15 14 14 15 15 15 15 16 17 17 18 18 18 18 18 19 20 20 20 20 19 20 21 22 24 25 25

ECMWFFLT1_850_spd_042.txt.gz
Wind_Speed
11 13 13 11 10 9 8 8 8 7 7 6 6 7 9 8 5 4 4 5 4 2 2 5 6 4 3 4 2 3 4 4 5 4 4 6 7 7 8 8 7 8 8 7 7 6 5 2 1 1 1 1 1 2 5 8 10 9 11 13 12 10 10
14 14 14 12 11 10 10 10 9 9 8 7 6 7 9 8 5 4 4 5 5 3 1 1 1 3 5 5 3 2 3 3 4 5 4 6 8 9 9 9 8 7 8 8 8 7 6 4 3 3 3 3 3 2 2 3 6 8 9 11 11 11 10
17 16 14 12 11 11 11 11 11 10 9 9 8 8 8 7 6 7 7 7 6 5 5 6 6 5 4 3 2 2 2 1 3 4 3 5 6 6 6 7 8 8 8 7 6 6 5 5 5 5 4 4 4 4 4 3 4 5 4 5 7 7 8
19 17 15 14 13 13 12 12 12 11 10 10 9 9 9 8 9 10 9 9 8 8 9 9 9 9 7 6 4 2 1 1 1 1 2 4 5 4 3 3 4 6 5 5 4 4 4 4 5 5 4 4 4 5 5 4 4 5 4 3 3 3 4
18 16 15 15 14 13 13 13 13 12 11 11 10 10 9 9 10 10 9 9 8 8 8 9 9 9 8 7 6 5 4 3 3 1 1 3 4 3 3 2 3 3 3 3 2 2 2 3 4 4 5 5 5 5 5 4 4 6 6 4 2 1 3
17 16 15 14 14 13 13 14 14 14 14 13 12 12 11 10 9 9 9 9 9 8 8 8 8 9 8 8 7 6 5 5 5 4 2 3 3 3 3 3 3 3 4 3 3 4 3 3 4 4 4 5 5 5 5 4 4 6 7 6 4 3 3
18 17 15 15 14 13 13 13 14 14 14 14 14 13 12 11 10 10 9 8 9 9 9 8 8 9 9 8 7 6 6 6 5 4 3 2 2 2 2 2 2 2 3 3 3 3 3 2 1 2 2 2 3 4 5 4 3 5 6 5 3 2 2
16 17 16 14 15 15 14 13 13 14 14 14 14 14 13 12 11 11 9 8 8 9 10 9 9 9 8 8 7 7 7 6 5 5 5 4 3 2 1 2 2 2 1 0 1 2 3 4 3 2 1 1 3 5 6 5 4 5 5 4 3 3 2
15 17 17 15 15 15 15 14 13 13 12 12 13 13 13 12 11 11 10 8 7 7 8 8 8 8 7 7 7 6 7 6 6 6 6 6 6 4 4 4 4 4 4 4 4 4 5 6 5 5 5 4 4 5 6 6 5 5 4 5 6 5 3
16 17 17 16 16 15 14 14 12 12 12 11 11 11 11 11 10 9 8 7 6 5 5 5 6 6 5 5 5 5 5 5 6 6 7 7 7 6 6 5 6 6 6 5 5 6 6 6 6 7 7 7 6 5 4 5 4 3 2 2 3 5 4
16 16 15 15 15 14 13 12 11 10 9 9 9 9 9 9 9 8 7 6 5 4 3 2 2 2 3 3 3 4 4 3 4 4 5 6 6 6 5 6 7 6 5 5 5 6 6 6 6 7 7 8 8 7 6 5 3 1 1 1 1 4 5
16 14 13 13 15 14 12 11 10 10 8 7 7 6 6 7 7 7 6 6 5 4 3 2 1 1 0 0 1 2 2 2 3 3 2 3 4 4 4 4 6 6 5 4 5 5 5 6 6 6 7 7 7 7 7 6 5 3 3 3 3 3 5
16 16 15 14 14 14 13 12 11 11 10 9 8 7 5 5 5 5 5 5 5 4 3 2 2 2 2 2 3 2 3 2 2 2 2 2 2 2 2 1 2 4 4 4 5 4 4 5 5 5 6 6 6 7 7 7 6 5 5 5 5 5 5
18 18 17 15 14 13 14 14 13 13 12 11 10 8 7 5 3 3 3 4 4 4 3 3 2 3 3 4 4 4 5 5 5 4 4 3 2 2 2 3 3 1 1 2 3 2 2 3 4 4 5 5 6 7 7 8 8 6 4 6 7 7 7
20 19 19 18 15 15 16 15 15 14 12 12 12 10 7 6 4 5 5 4 4 4 3 3 3 4 4 5 5 5 6 7 7 7 7 5 4 4 4 4 4 3 2 1 2 1 1 2 2 2 3 4 5 7 8 9 10 11 9 9 9 10 11
21 20 21 20 18 19 20 17 16 15 15 15 15 13 10 8 6 7 8 8 8 7 6 5 5 6 6 6 7 6 6 7 7 8 9 8 7 7 7 6 6 5 4 4 4 4 3 3 3 3 4 4 5 7 8 10 11 13 15 14 13 14 15
22 22 22 21 20 21 21 19 18 18 19 19 18 16 13 11 10 10 11 11 11 10 9 8 8 8 8 8 8 8 7 7 7 7 8 8 9 9 9 9 9 8 7 6 5 5 5 5 5 6 6 7 8 9 9 10 12 14 16 18 17 17 18
25 24 23 23 23 21 20 21 23 23 22 21 20 19 15 13 14 15 14 14 14 13 12 12 12 12 11 11 11 11 10 10 9 9 8 9 10 10 10 10 11 11 10 8 7 7 7 7 7 8 8 9 10 11 11 11 13 14 16 19 20 19 19
22 23 22 22 22 20 19 22 25 24 23 21 19 20 18 17 17 18 17 15 15 15 15 15 15 15 14 15 15 15 14 14 14 13 12 11 11 11 11 11 11 11 11 10 9 7 6 8 9 9 10 11 12 13 13 13 14 16 17 19 20 20 20
17 19 19 19 21 21 21 22 24 24 22 19 18 19 20 19 19 20 19 17 17 17 17 17 17 18 18 18 18 18 17 17 17 16 15 15 14 14 13 13 12 11 9 10 10 8 7 8 10 11 12 13 14 15 15 16 17 18 19 19 20 21 21
15 16 17 17 20 23 22 21 23 24 24 23 23 22 21 20 20 21 21 21 21 22 22 22 22 22 22 21 20 20 20 20 19 19 18 18 18 18 17 16 15 13 10 9 9 8 8 9 9 11 14 16 17 18 18 19 19 20 20 21 21 22 22
11 10 10 12 14 17 17 16 16 17 18 19 19 19 19 18 19 20 20 21 20 21 23 25 25 25 25 24 23 22 22 22 21 20 20 20 20 21 21 19 18 16 14 11 10 10 10 11 10 11 15 18 21 23 23 23 22 21 22 22 23 24 25
6 4 3 4 5 6 7 7 7 7 7 8 8 9 10 10 10 11 12 13 15 16 18 20 21 22 22 22 22 22 22 23 22 21 20 21 23 24 24 23 21 19 17 15 14 14 14 13 13 12 13 18 23 26 26 26 25 24 24 25 25 26 27
5 3 3 3 4 4 5 5 5 4 5 5 6 7 8 8 7 6 6 7 9 11 13 15 17 18 19 20 20 20 21 22 22 22 22 22 23 25 26 25 23 22 21 19 18 18 16 14 14 13 13 17 23 26 26 27 27 26 26 27 27 28 28
6 5 5 5 4 4 4 4 4 5 5 6 7 7 8 9 8 7 7 7 8 9 11 12 14 15 16 17 17 18 20 21 22 23 25 25 24 24 26 27 25 24 23 22 21 21 18 15 14 14 14 17 21 25 26 27 28 27 27 28 28 28 29
7 7 7 6 5 5 5 5 5 5 6 7 8 8 8 9 8 8 7 7 9 11 12 13 13 13 14 14 15 17 18 18 19 20 21 23 23 23 25 27 27 25 25 25 24 21 17 15 14 15 16 18 21 24 26 27 27 27 27 28 28 29 29
9 10 10 10 10 10 9 8 8 9 9 9 9 9 9 10 10 10 10 9 10 12 12 13 13 14 14 14 14 14 15 16 18 19 19 18 20 23 26 27 27 26 25 24 22 19 16 15 16 17 18 19 22 23 25 26 27 27 28 28 28 29 29
7 8 9 10 11 11 11 11 10 10 11 12 12 12 12 12 12 13 13 11 11 12 12 13 13 14 14 15 14 14 14 14 15 17 16 14 17 23 27 27 26 24 22 21 19 18 17 18 18 19 20 21 22 23 24 26 27 28 28 28 29 30 31
6 6 6 7 8 8 9 9 9 9 9 10 11 12 13 13 13 14 14 13 12 13 13 14 14 14 14 15 16 15 13 11 10 10 10 11 15 23 27 26 24 22 21 20 20 19 19 19 20 21 22 22 22 24 25 27 28 28 28 29 31 32 33
7 7 7 8 9 10 11 11 10 10 10 10 10 11 12 12 12 13 13 13 13 13 14 14 15 15 15 16 16 14 10 7 6 7 9 11 15 20 23 23 23 22 22 21 21 21 21 21 22 23 23 23 25 26 27 27 28 28 29 31 32 33 33
9 9 10 11 11 12 12 12 12 12 12 12 13 15 15 15 14 14 13 13 13 13 14 15 15 15 15 15 14 11 8 6 6 8 11 13 15 17 20 22 23 23 23 22 21 21 21 22 22 23 24 26 28 28 28 29 29 30 31 32 31 31 30
12 13 13 14 14 14 14 15 15 16 16 17 17 18 18 18 17 16 15 14 14 14 14 15 15 15 14 13 12 10 8 7 8 9 12 15 16 17 19 21 21 21 21 20 21 22 22 23 23 24 25 27 27 28 29 30 31 31 31 30 29 28 27
14 15 15 15 16 16 16 17 18 18 18 18 18 17 18 18 18 17 15 15 15 15 14 14 14 13 12 11 10 9 8 9 10 12 14 16 17 18 19 20 19 18 18 19 21 23 24 24 24 25 26 26 27 28 29 29 29 29 28 28 27 26 26
14 14 14 14 14 14 15 16 16 17 17 17 17 18 19 19 18 16 16 15 14 14 15 14 13 12 10 10 10 10 10 12 13 14 15 16 16 17 18 18 18 18 19 20 22 23 23 23 24 25 25 26 27 27 27 26 26 25 25 26 25 25 24
15 14 15 16 16 16 16 17 18 19 19 19 20 20 20 19 18 17 16 15 14 14 14 14 13 11 9 9 10 11 12 14 14 14 15 15 16 17 18 18 18 19 20 20 20 21 21 22 23 24 24 24 24 24 23 23 23 24 24 24 23 23 23
18 18 19 19 20 20 20 21 22 23 22 21 19 17 16 16 16 17 16 16 15 14 14 13 12 10 9 10 12 14 15 15 15 15 15 16 17 18 18 18 17 17 18 18 19 20 20 21 21 21 22 21 21 21 21 21 23 24 24 23 22 22 22
19 19 19 19 20 21 21 21 22 21 20 18 16 15 15 15 16 17 18 18 16 15 14 13 12 12 13 16 16 16 16 15 14 13 13 14 15 15 15 15 15 15 16 17 18 18 18 18 18 18 18 18 19 19 20 21 22 23 23 22 22 23 23

ECMWFFLT1_850_spd_045.txt.gz
Wind_Speed
7 7 7 7 6 6 5 5 6 7 7 7 7 6 5 5 4 3 2 2 2 3 4 5 6 5 3 3 3 2 2 3 3 2 1 2 3 4 6 7 7 7 6 5 4 5 4 5 4 3 2 1 1 1 1 5 8 9 11 12 13 14 17
8 8 7 7 7 6 5 5 6 6 7 7 7 7 7 5 4 3 1 1 1 1 2 3 3 2 3 2 1 1 1 2 3 4 3 3 3 3 5 6 6 6 6 6 5 4 4 4 5 5 4 3 3 3 3 4 6 7 8 8 9 11 13
10 10 10 9 7 6 6 6 6 5 5 5 5 5 5 4 2 1 3 3 3 3 5 6 5 4 3 2 2 2 2 1 2 2 2 3 4 3 3 2 1 1 2 3 2 2 2 3 4 5 6 5 5 5 3 3 3 4 5 4 4 5 7
12 13 12 10 8 7 7 6 6 6 5 4 4 4 4 3 4 5 6 5 5 6 7 8 9 8 6 5 5 4 4 4 3 2 2 3 3 2 1 1 1 1 1 1 1 0 1 1 2 4 5 5 5 5 2 0 0 1 2 1 1 2 2
13 14 12 9 8 7 7 8 8 7 7 6 6 6 7 6 7 7 7 6 6 6 6 7 7 8 8 7 7 6 5 5 5 5 4 3 2 1 1 1 1 1 1 2 2 2 2 1 2 3 3 4 4 3 3 2 3 3 3 3 3 3 2
14 15 12 9 8 8 8 8 8 8 8 8 8 8 9 9 8 7 6 5 5 5 5 5 6 7 8 7 7 6 6 6 6 6 5 4 3 3 3 3 3 3 2 2 3 4 3 2 1 2 2 4 4 4 3 3 5 7 7 7 7 6 4
16 17 13 11 9 9 9 9 9 9 9 8 9 9 9 9 9 8 6 5 6 7 6 6 7 7 8 8 7 7 6 7 7 6 5 5 4 4 4 4 4 4 4 3 4 5 4 4 3 2 1 2 4 5 5 4 5 7 8 8 8 6 4
18 17 15 13 12 11 11 11 11 10 10 9 9 9 9 9 9 9 9 8 8 8 8 7 7 8 8 8 8 8 8 8 8 7 6 5 5 5 4 4 4 4 4 4 5 5 5 6 5 4 2 2 5 7 7 6 6 6 7 7 6 5 4
19 18 17 15 14 14 13 12 12 11 11 11 10 10 9 9 9 9 10 9 9 8 8 7 7 7 7 7 7 8 8 9 9 8 7 7 7 6 4 4 5 6 5 5 5 5 6 6 6 5 4 4 6 8 8 6 5 5 5 4 3 3 3
19 18 18 17 16 16 15 13 12 12 12 11 10 9 9 8 8 7 7 7 7 7 6 6 5 5 5 5 5 6 7 8 8 8 8 8 7 7 6 6 6 6 6 6 5 5 6 6 6 7 7 7 6 7 7 6 5 5 3 2 1 0 2
18 16 16 17 17 16 16 15 14 13 11 10 9 8 7 7 6 5 4 3 3 4 4 4 3 3 3 2 2 3 4 4 6 6 7 7 7 7 6 5 6 6 5 5 5 5 6 6 7 7 8 9 8 7 6 5 4 4 4 3 1 1 2
18 14 14 16 17 17 17 16 14 12 10 9 9 8 7 6 5 4 4 3 2 2 2 2 2 2 1 1 1 1 0 1 1 3 4 4 4 5 5 4 5 5 5 4 4 5 5 6 7 7 8 8 8 8 8 6 5 5 5 6 5 4 4
20 14 13 15 16 16 16 15 14 11 9 7 6 5 5 4 4 4 4 4 4 4 3 3 2 2 3 2 2 2 2 2 2 2 2 2 2 3 3 3 2 4 4 4 3 4 4 4 5 5 6 6 7 8 7 7 7 6 6 7 7 6 6
21 15 13 14 14 14 14 14 12 9 7 6 5 5 4 3 3 3 4 4 4 5 5 5 4 4 4 3 3 3 4 4 4 4 4 3 3 3 2 2 2 1 2 2 2 2 2 3 3 4 4 5 6 6 6 7 6 5 5 7 8 7 8
21 16 15 15 13 14 14 13 11 10 9 8 8 7 6 6 6 6 7 6 6 6 6 6 5 5 4 5 4 4 4 4 5 5 5 5 5 5 4 3 3 3 3 2 1 1 1 2 2 3 4 5 6 7 7 8 9 8 7 7 8 9 11
18 17 18 16 14 15 14 13 13 12 12 11 10 9 9 9 10 10 10 9 9 9 8 8 7 7 6 5 6 5 5 5 5 5 4 4 5 5 5 5 5 5 5 5 3 2 2 2 3 4 5 5 7 8 10 11 11 12 12 11 11 13 14
19 20 21 18 17 17 16 15 15 14 14 14 12 12 12 13 15 15 13 13 13 12 11 11 11 10 8 7 7 7 7 8 7 6 5 4 5 5 5 5 6 6 7 7 5 4 3 3 3 4 5 6 7 9 11 12 13 13 14 15 14 15 16
21 23 21 20 19 19 17 17 16 16 17 17 16 17 17 19 20 21 19 17 17 16 15 15 14 13 12 11 10 10 9 9 10 9 9 8 7 7 6 6 6 6 7 7 6 5 4 3 3 4 6 7 9 11 13 14 14 15 15 16 16 16 16
23 22 20 19 20 20 19 18 18 20 21 21 21 21 21 22 22 23 23 22 22 22 19 18 18 17 16 15 15 14 14 13 13 13 13 12 11 10 9 8 8 7 6 6 6 6 5 5 5 6 7 8 10 12 15 17 18 18 17 17 17 17 18
22 21 19 19 19 20 20 21 22 22 23 24 24 23 23 23 22 22 23 23 25 24 22 20 21 20 19 19 19 18 18 18 17 17 16 16 15 14 13 12 11 10 8 6 6 7 7 7 8 8 8 8 10 12 15 18 20 21 20 19 19 19 20
19 18 18 20 21 21 22 23 23 23 24 25 24 24 24 23 22 23 23 24 24 22 21 21 22 22 22 22 22 21 20 20 20 20 20 19 18 17 16 15 15 14 12 10 9 9 9 10 11 10 9 8 9 11 14 17 20 22 21 21 21 22 22
17 17 18 19 20 21 21 22 22 23 24 23 23 23 23 22 22 24 24 24 23 21 22 23 24 24 25 25 25 25 24 23 22 21 21 21 20 20 19 18 18 18 17 15 13 12 13 14 14 12 11 10 10 11 13 16 19 22 24 23 23 24 25
11 11 10 10 10 11 12 13 14 15 15 14 14 15 15 15 16 18 18 17 17 18 19 20 21 21 21 21 22 23 23 22 21 20 20 20 21 22 21 21 20 20 20 19 17 16 16 17 17 16 14 13 12 13 15 18 20 24 26 26 25 26 27
10 9 8 7 7 6 6 7 7 7 6 6 7 7 8 8 9 10 10 10 9 9 10 12 13 14 15 17 19 20 21 21 20 19 19 20 21 20 21 22 22 22 23 22 20 20 19 19 19 18 17 16 15 15 17 20 24 26 28 27 26 27 29
8 7 7 7 6 6 6 6 6 5 5 5 5 5 5 6 7 8 9 10 8 7 7 8 9 10 10 13 16 17 18 19 19 19 20 20 20 20 21 21 22 23 24 24 23 22 21 21 21 20 19 19 19 19 19 21 25 29 29 27 27 28 29
5 4 4 5 4 4 4 4 5 5 5 5 6 6 7 7 8 9 9 10 10 10 9 8 9 9 8 9 11 12 12 13 15 16 16 16 17 19 20 21 21 22 24 24 23 22 23 22 22 21 21 21 20 20 20 22 26 29 29 28 28 29 29
4 4 5 5 5 5 5 5 5 6 6 7 8 9 9 10 11 11 11 11 11 11 11 10 9 9 9 9 10 10 10 10 11 12 13 13 14 14 15 17 18 20 23 25 24 24 24 24 23 22 22 21 20 21 22 24 26 28 28 28 29 29 30
6 6 6 6 6 7 7 8 8 9 9 10 11 11 12 12 13 13 13 13 12 12 11 10 9 9 10 11 11 11 11 11 10 10 10 10 10 10 10 12 14 18 23 25 25 25 25 24 23 23 22 21 21 22 25 26 27 27 27 28 29 30 30
7 7 7 6 6 6 7 8 9 9 10 10 10 10 10 11 11 11 12 12 12 12 11 10 10 10 11 11 12 13 13 11 9 9 9 9 8 7 8 10 14 19 23 24 24 24 24 24 23 22 21 21 22 24 26 27 28 28 29 30 30 31 32
8 8 7 7 6 7 8 9 10 11 10 10 10 10 10 11 12 13 13 13 12 11 11 10 10 10 11 12 13 13 12 11 10 10 9 8 6 6 7 10 15 20 22 23 23 23 23 22 22 21 22 23 24 25 26 27 28 29 30 30 31 32 33
9 9 9 8 8 9 9 10 11 12 12 12 12 13 14 14 16 16 16 16 14 13 11 10 10 10 10 11 12 12 12 11 11 10 8 7 6 7 9 11 15 19 21 22 22 22 22 22 22 23 24 24 25 25 26 28 29 30 30 31 31 31 31
10 10 10 10 10 11 11 12 13 14 15 15 15 15 16 16 16 16 16 17 17 15 13 12 11 10 10 10 10 10 10 10 9 8 8 7 7 9 11 13 14 16 18 20 21 22 22 22 22 23 24 24 25 27 28 29 30 30 30 30 30 30 30
9 9 10 11 12 13 14 14 15 15 16 16 16 16 16 16 17 18 19 19 18 16 14 13 12 12 11 10 9 9 9 9 9 8 8 8 9 11 13 14 15 16 17 18 20 21 21 21 22 23 24 25 26 28 28 28 28 29 29 29 30 30 30
11 10 10 11 12 13 14 14 14 14 14 15 15 16 16 18 19 20 20 17 15 14 14 13 13 13 12 10 9 9 10 11 10 10 10 11 12 12 13 14 15 16 17 18 20 21 21 23 24 24 25 26 26 27 27 27 27 28 29 29 30 31 31
13 13 13 13 13 14 14 14 15 16 16 17 18 19 19 20 19 18 15 12 11 12 12 12 13 13 12 11 10 10 10 11 11 11 12 13 14 14 15 16 16 17 18 20 20 21 22 23 24 24 24 25 25 26 26 27 28 28 29 30 31 31 31
15 15 15 15 15 16 17 18 18 18 19 20 20 20 19 18 16 14 13 12 12 12 13 13 13 12 12 12 11 10 11 13 14 14 14 14 15 16 17 18 18 18 19 19 20 21 22 22 23 23 23 23 24 25 26 27 28 28 29 30 30 31 30
17 17 16 16 17 18 19 20 19 19 20 21 20 19 17 16 14 14 15 15 14 14 14 14 14 13 13 12 12 13 15 17 17 16 16 16 16 16 17 17 17 17 17 18 19 20 20 20 20 21 21 22 23 24 25 26 27 28 28 29 29 30 29

ECMWFFLT1_850_spd_048.txt.gz
Wind_Speed
1 2 4 5 4 3 2 1 1 0 1 1 2 3 3 3 4 6 4 4 4 4 4 3 3 4 2 1 3 4 4 4 4 5 5 3 1 3 4 6 7 6 5 5 6 7 8 9 8 6 5 5 5 5 6 8 9 9 9 9 9 9 11
3 3 5 5 4 3 2 1 0 1 1 2 2 3 3 4 6 7 7 7 6 5 5 3 1 1 2 2 1 2 3 3 4 6 7 6 5 3 1 1 2 2 1 1 4 6 8 10 8 7 6 5 4 4 3 4 5 5 6 5 5 6 8
5 5 6 6 5 4 2 1 1 2 2 3 3 3 3 5 7 8 8 8 7 8 9 9 7 5 4 2 1 0 1 1 1 3 4 5 6 6 5 5 5 6 6 5 3 2 4 7 7 9 9 6 6 6 4 2 1 2 2 3 3 3 4
6 6 7 7 6 4 3 2 2 3 4 4 5 6 6 7 7 8 8 8 8 9 10 11 10 9 7 6 5 4 4 3 2 2 2 3 4 4 4 4 4 4 5 5 5 5 5 5 7 10 10 7 7 8 8 6 4 3 2 1 1 2 3
7 7 8 7 5 3 2 3 3 4 5 6 7 8 8 8 7 8 8 8 8 9 9 10 10 10 9 8 8 7 7 7 6 6 5 4 3 2 2 2 2 2 2 3 3 3 3 4 6 8 9 7 8 10 11 9 8 7 6 5 5 5 4
9 8 8 7 5 2 2 3 4 6 7 8 8 9 9 8 8 8 8 8 8 9 9 9 9 9 9 8 8 8 8 8 8 7 6 5 4 4 4 4 4 3 3 3 3 3 4 5 6 8 8 7 8 11 12 10 10 10 9 8 7 6 5
10 9 8 7 5 3 3 4 6 7 9 9 9 9 8 7 7 7 7 7 8 8 9 9 9 10 10 9 9 8 8 9 8 7 6 6 5 5 6 5 5 5 5 5 5 4 4 5 6 8 9 10 10 11 11 11 10 10 10 9 8 6 5
11 10 9 8 6 4 5 6 7 9 10 10 10 10 9 8 7 7 7 7 8 8 8 8 9 9 10 10 10 9 8 9 9 8 8 8 8 7 7 7 7 7 7 6 6 5 5 5 6 7 9 13 14 13 11 10 9 9 9 8 6 5 4
12 11 10 9 8 6 7 8 8 9 9 10 10 10 9 9 8 8 8 7 8 7 7 7 7 8 8 9 9 9 9 9 9 9 9 9 9 9 8 8 8 8 8 8 7 6 7 7 7 7 8 11 13 14 13 10 9 8 7 5 4 4 4
12 11 10 11 10 8 9 9 9 9 9 9 9 9 9 8 8 8 7 6 6 5 4 4 4 5 6 6 8 8 8 8 8 9 9 9 9 9 9 9 9 9 9 10 9 9 9 9 9 9 9 9 11 13 13 12 10 8 6 4 3 3 3
12 11 11 11 11 10 11 11 11 10 9 9 8 8 7 7 6 5 5 4 4 3 2 1 1 2 2 3 4 5 5 5 5 6 7 7 7 8 8 8 8 8 9 9 10 10 10 10 10 10 10 9 9 10 11 10 9 8 6 5 4 4 4
12 11 11 12 12 12 12 12 12 10 9 8 7 6 5 4 3 2 1 1 1 0 1 2 2 2 2 2 2 2 3 3 2 3 3 4 4 5 5 6 6 6 7 7 7 8 8 8 8 9 9 9 9 8 7 7 7 7 6 5 5 5 5
13 13 13 12 13 13 12 12 12 11 10 8 7 6 4 3 2 1 0 1 2 2 3 3 3 4 3 3 3 2 2 2 2 2 1 2 2 2 2 3 3 3 4 4 4 5 5 4 5 5 6 7 7 8 7 5 6 6 5 6 5 6 6
15 16 14 11 12 13 13 13 12 11 10 9 7 6 4 3 2 1 0 1 2 3 4 4 4 4 4 4 4 3 4 4 3 3 3 3 2 2 2 2 2 2 2 2 2 2 2 2 2 2 3 4 5 5 5 5 5 5 6 6 6 7 7
17 17 15 13 12 12 12 13 13 11 10 10 8 6 4 3 3 2 3 3 3 3 4 5 5 5 5 5 4 4 4 5 5 4 4 3 3 3 3 3 4 3 3 3 3 2 2 2 2 2 3 3 4 5 6 7 7 7 8 8 9 9 10
18 18 16 15 13 11 11 13 13 12 11 10 8 6 5 6 6 6 6 6 6 6 6 7 7 7 7 6 6 6 5 4 5 5 4 3 3 3 4 4 4 5 4 5 4 4 3 3 4 3 3 4 5 6 7 9 10 11 12 13 13 13 13
17 17 17 17 15 13 12 13 14 14 12 11 9 8 8 9 9 9 9 9 10 10 9 9 9 9 8 8 8 8 8 7 6 5 4 4 4 4 4 4 4 5 5 5 5 4 4 4 3 3 3 4 5 6 8 10 12 14 15 15 15 15 15
17 16 18 19 17 15 14 13 14 15 14 13 13 12 11 12 13 12 12 14 15 14 12 12 12 13 13 13 12 11 12 11 10 8 7 6 6 6 6 6 6 5 5 5 5 4 4 4 3 3 3 3 4 6 9 11 13 15 16 17 18 17 17
17 17 19 19 18 17 16 15 15 16 15 15 16 15 14 15 16 14 16 19 20 19 19 18 17 17 17 18 17 16 17 17 15 13 12 11 11 10 8 8 8 8 7 6 5 4 4 4 5 5 5 6 6 8 10 12 13 15 16 18 19 21 21
17 18 20 20 20 21 19 17 17 17 16 16 17 16 16 17 18 17 19 21 22 23 23 23 22 21 20 20 19 19 20 21 20 17 16 16 16 15 13 12 10 10 10 9 7 7 6 7 7 8 9 10 10 11 12 13 14 15 16 18 20 22 24
16 19 21 21 21 21 20 17 15 15 16 16 16 17 18 20 20 20 21 23 23 23 24 24 24 23 22 19 18 18 20 20 20 18 18 18 18 17 17 16 14 14 14 13 12 11 10 10 10 11 13 13 13 13 14 15 16 17 17 18 20 23 25
15 18 19 19 19 18 16 15 15 15 16 16 16 18 20 21 21 22 23 24 23 23 23 24 24 24 23 21 20 20 20 20 20 21 21 21 20 18 17 17 17 17 17 16 16 14 13 13 14 15 16 16 15 16 16 17 17 17 17 18 20 24 26
15 16 17 17 17 15 14 15 17 18 19 18 18 19 20 20 20 19 18 18 19 18 18 19 19 18 18 17 18 18 18 19 20 21 22 21 20 18 17 17 18 19 19 19 18 18 16 16 17 18 19 18 17 18 18 18 18 17 17 18 20 24 26
13 15 16 15 13 11 9 10 10 12 14 14 13 14 14 13 11 10 10 10 10 10 10 10 8 8 8 10 11 12 13 15 16 17 18 19 19 19 18 19 19 19 20 21 21 20 19 19 20 21 21 20 20 20 20 20 19 18 17 19 21 24 25
12 12 12 11 9 7 6 5 4 4 5 6 5 6 6 6 7 7 8 8 8 8 9 9 7 5 6 8 8 8 9 10 11 12 14 15 16 17 18 19 19 20 21 22 22 22 22 23 23 23 22 22 22 22 21 20 19 19 20 22 23 25 26
10 9 8 7 6 4 3 3 2 2 2 2 3 4 5 6 7 8 8 9 9 9 10 10 9 6 6 7 8 8 8 8 9 10 11 12 12 14 15 15 16 16 17 19 20 20 22 24 24 23 23 23 22 21 20 20 21 21 22 23 24 25 29
6 5 5 5 4 3 3 2 2 1 2 3 4 6 7 9 9 10 10 11 11 10 10 10 10 8 7 8 9 9 9 9 9 10 11 11 11 12 13 13 14 14 15 16 16 16 19 23 23 22 22 22 22 21 21 22 22 23 24 25 25 27 31
5 6 6 6 5 5 5 5 4 4 5 5 6 8 9 10 10 10 10 11 11 12 12 12 12 10 10 10 10 11 11 10 10 10 11 11 11 12 12 12 13 13 14 14 13 14 17 21 22 22 22 22 21 22 22 23 24 25 26 27 27 29 31
8 8 8 8 7 7 7 7 6 5 5 5 5 6 6 6 7 7 8 8 9 9 10 11 12 12 12 12 12 12 12 11 11 10 10 11 11 11 11 10 10 10 10 10 11 14 18 20 21 21 21 21 22 23 23 24 25 26 27 28 29 31 31
7 7 8 8 7 7 7 6 5 4 3 3 4 4 5 5 6 8 9 9 9 9 9 9 9 10 10 11 11 11 11 10 10 10 10 10 9 9 9 8 7 6 6 8 11 15 18 20 20 20 20 21 22 22 23 24 26 27 28 29 31 32 32
5 6 6 7 7 7 7 6 5 4 4 4 4 5 6 7 8 9 9 10 10 11 12 11 9 9 9 9 9 9 9 9 9 9 9 8 8 7 6 6 6 6 6 9 13 16 18 19 19 19 20 20 20 21 23 25 26 27 28 30 31 31 31
6 6 6 7 7 7 7 7 6 6 6 6 7 7 8 8 9 10 11 12 13 14 13 11 9 8 8 8 8 8 8 8 8 8 8 7 6 6 5 6 7 8 9 12 14 16 17 17 18 18 19 20 21 23 26 27 27 28 29 30 30 30 30
14 13 13 12 11 10 9 9 8 8 8 8 8 8 9 9 11 12 14 15 16 16 13 10 7 7 7 7 7 7 7 7 7 8 7 6 6 6 7 8 9 10 12 14 15 16 17 18 19 20 21 22 24 26 27 28 29 29 29 29 30 30 30
18 17 17 16 14 13 12 11 11 11 10 10 10 10 11 12 14 15 16 17 16 14 11 8 7 6 6 6 6 5 6 7 7 7 6 6 7 8 9 11 12 13 14 15 16 17 18 19 20 21 22 24 25 27 27 28 28 28 28 29 29 29 29
17 17 17 16 15 13 12 12 13 13 12 12 13 14 15 16 16 16 16 14 13 12 10 9 8 7 7 6 6 5 6 7 7 6 7 8 10 11 12 13 13 14 15 16 17 17 18 19 20 21 23 25 26 26 26 26 27 27 27 28 28 28 28
16 16 16 15 15 14 14 13 13 13 14 15 15 16 16 16 16 14 13 11 11 11 11 11 10 9 9 8 8 7 6 7 7 8 10 11 12 13 14 14 15 15 16 17 17 17 18 19 21 22 23 24 24 24 24 25 26 26 27 27 27 27 27
17 17 17 16 16 15 14 13 13 14 15 16 15 15 14 14 14 13 12 12 12 13 14 13 12 11 10 10 9 9 8 8 10 13 14 14 13 14 15 15 16 16 16 17 17 17 18 19 20 21 21 21 22 22 23 24 24 25 25 25 26 26 26